Wetterdaten: Freitag, 23.11.2018
Datum Zeit Temp. Aussen Temp. o. S. +5cm Feuchte Auss Luftdruck Regen Sonnenschein Regendauer Solar Windben Empfang
23.11.2018 00:00 1,9 C 1,1 C 0,6 C 90 % 1017,4 hPa 0,0 l/m 0 min 0 min 0 W/m 9,7 km/h (2 Bft) 100,00 %
23.11.2018 00:02 1,9 C 1,1 C 0,6 C 90 % 1017,3 hPa 0,0 l/m 0 min 0 min 0 W/m 12,9 km/h (3 Bft) 96,88 %
23.11.2018 00:04 1,9 C 1,1 C 0,6 C 90 % 1017,3 hPa 0,0 l/m 0 min 0 min 0 W/m 12,9 km/h (3 Bft) 97,87 %
23.11.2018 00:08 1,9 C 1,1 C 0,6 C 90 % 1017,3 hPa 0,0 l/m 0 min 0 min 0 W/m 16,1 km/h (3 Bft) 98,94 %
23.11.2018 00:10 1,9 C 1,1 C 1,1 C 90 % 1017,3 hPa 0,0 l/m 0 min 0 min 0 W/m 12,9 km/h (3 Bft) 98,15 %
23.11.2018 00:12 1,9 C 1,1 C 1,1 C 90 % 1017,4 hPa 0,0 l/m 0 min 0 min 0 W/m 9,7 km/h (2 Bft) 98,00 %
23.11.2018 00:14 1,9 C 1,1 C 1,1 C 90 % 1017,4 hPa 0,0 l/m 0 min 0 min 0 W/m 9,7 km/h (2 Bft) 100,00 %
23.11.2018 00:16 1,9 C 1,1 C 0,6 C 90 % 1017,4 hPa 0,0 l/m 0 min 0 min 0 W/m 16,1 km/h (3 Bft) 100,00 %
23.11.2018 00:18 1,9 C 1,1 C 0,6 C 90 % 1017,3 hPa 0,0 l/m 0 min 0 min 0 W/m 19,3 km/h (3 Bft) 100,00 %
23.11.2018 00:20 1,9 C 1,1 C 0,6 C 91 % 1017,4 hPa 0,0 l/m 0 min 0 min 0 W/m 12,9 km/h (3 Bft) 100,00 %
23.11.2018 00:22 1,9 C 1,1 C 1,1 C 91 % 1017,3 hPa 0,0 l/m 0 min 0 min 0 W/m 16,1 km/h (3 Bft) 100,00 %
23.11.2018 00:24 1,9 C 1,1 C 1,1 C 91 % 1017,3 hPa 0,0 l/m 0 min 0 min 0 W/m 12,9 km/h (3 Bft) 100,00 %
23.11.2018 00:26 1,9 C 1,1 C 1,1 C 91 % 1017,4 hPa 0,0 l/m 0 min 0 min 0 W/m 22,5 km/h (4 Bft) 97,14 %
23.11.2018 00:28 1,9 C 1,1 C 1,1 C 91 % 1017,3 hPa 0,0 l/m 0 min 0 min 0 W/m 12,9 km/h (3 Bft) 100,00 %
23.11.2018 00:30 1,9 C 1,1 C 1,1 C 91 % 1017,3 hPa 0,0 l/m 0 min 0 min 0 W/m 19,3 km/h (3 Bft) 100,00 %
23.11.2018 00:32 1,9 C 1,1 C 0,6 C 91 % 1017,3 hPa 0,0 l/m 0 min 0 min 0 W/m 16,1 km/h (3 Bft) 100,00 %
23.11.2018 00:34 1,9 C 1,1 C 0,6 C 91 % 1017,2 hPa 0,0 l/m 0 min 0 min 0 W/m 9,7 km/h (2 Bft) 100,00 %
23.11.2018 00:36 1,9 C 1,1 C 0,6 C 91 % 1017,3 hPa 0,0 l/m 0 min 0 min 0 W/m 12,9 km/h (3 Bft) 97,87 %
23.11.2018 00:38 1,9 C 1,1 C 0,6 C 91 % 1017,3 hPa 0,0 l/m 0 min 0 min 0 W/m 12,9 km/h (3 Bft) 100,00 %
23.11.2018 00:40 1,8 C 1,1 C 0,6 C 91 % 1017,3 hPa 0,0 l/m 0 min 0 min 0 W/m 9,7 km/h (2 Bft) 97,87 %
23.11.2018 00:42 1,8 C 1,1 C 0,6 C 91 % 1017,2 hPa 0,0 l/m 0 min 0 min 0 W/m 12,9 km/h (3 Bft) 100,00 %
23.11.2018 00:44 1,8 C 1,1 C 0,6 C 91 % 1017,2 hPa 0,0 l/m 0 min 0 min 0 W/m 9,7 km/h (2 Bft) 100,00 %
23.11.2018 00:46 1,8 C 1,1 C 0,6 C 91 % 1017,2 hPa 0,0 l/m 0 min 0 min 0 W/m 9,7 km/h (2 Bft) 100,00 %
23.11.2018 00:48 1,8 C 1,1 C 0,6 C 91 % 1017,2 hPa 0,0 l/m 0 min 0 min 0 W/m 6,4 km/h (2 Bft) 100,00 %
23.11.2018 00:50 1,8 C 1,1 C 0,6 C 91 % 1017,2 hPa 0,0 l/m 0 min 0 min 0 W/m 9,7 km/h (2 Bft) 97,87 %
23.11.2018 00:52 1,8 C 1,1 C 0,6 C 91 % 1017,2 hPa 0,0 l/m 0 min 0 min 0 W/m 12,9 km/h (3 Bft) 100,00 %
23.11.2018 00:54 1,8 C 1,1 C 0,6 C 91 % 1017,1 hPa 0,0 l/m 0 min 0 min 0 W/m 9,7 km/h (2 Bft) 100,00 %
23.11.2018 00:56 1,8 C 1,1 C 0,6 C 91 % 1017,1 hPa 0,0 l/m 0 min 0 min 0 W/m 9,7 km/h (2 Bft) 100,00 %
23.11.2018 00:58 1,8 C 1,1 C 0,6 C 91 % 1017,2 hPa 0,0 l/m 0 min 0 min 0 W/m 6,4 km/h (2 Bft) 100,00 %
23.11.2018 01:00 1,7 C 0,6 C 0,6 C 91 % 1017,1 hPa 0,0 l/m 0 min 0 min 0 W/m 3,2 km/h (1 Bft) 100,00 %
23.11.2018 01:02 1,7 C 0,6 C 0,6 C 91 % 1017,1 hPa 0,0 l/m 0 min 0 min 0 W/m 6,4 km/h (2 Bft) 98,15 %
23.11.2018 01:04 1,7 C 0,6 C 0,6 C 91 % 1017,2 hPa 0,0 l/m 0 min 0 min 0 W/m 6,4 km/h (2 Bft) 100,00 %
23.11.2018 01:06 1,7 C 0,6 C 0,6 C 91 % 1017,1 hPa 0,0 l/m 0 min 0 min 0 W/m 6,4 km/h (2 Bft) 100,00 %
23.11.2018 01:08 1,6 C 0,6 C 0,6 C 91 % 1017,1 hPa 0,0 l/m 0 min 0 min 0 W/m 3,2 km/h (1 Bft) 97,87 %
23.11.2018 01:10 1,6 C 0,6 C 0,0 C 91 % 1017,2 hPa 0,0 l/m 0 min 0 min 0 W/m 6,4 km/h (2 Bft) 97,87 %
23.11.2018 01:12 1,6 C 0,6 C 0,0 C 91 % 1017,2 hPa 0,0 l/m 0 min 0 min 0 W/m 6,4 km/h (2 Bft) 97,92 %
23.11.2018 01:14 1,5 C 0,6 C 0,0 C 91 % 1017,2 hPa 0,0 l/m 0 min 0 min 0 W/m 9,7 km/h (2 Bft) 97,87 %
23.11.2018 01:16 1,5 C 0,6 C 0,0 C 91 % 1017,1 hPa 0,0 l/m 0 min 0 min 0 W/m 9,7 km/h (2 Bft) 97,14 %
23.11.2018 01:18 1,4 C 0,6 C 0,0 C 91 % 1017,1 hPa 0,0 l/m 0 min 0 min 0 W/m 9,7 km/h (2 Bft) 97,87 %
23.11.2018 01:20 1,4 C 0,6 C 0,0 C 91 % 1017,2 hPa 0,0 l/m 0 min 0 min 0 W/m 6,4 km/h (2 Bft) 97,83 %
23.11.2018 01:22 1,4 C 0,6 C 0,0 C 91 % 1017,3 hPa 0,0 l/m 0 min 0 min 0 W/m 6,4 km/h (2 Bft) 97,87 %
23.11.2018 01:24 1,4 C 0,6 C 0,0 C 91 % 1017,3 hPa 0,0 l/m 0 min 0 min 0 W/m 6,4 km/h (2 Bft) 98,15 %
23.11.2018 01:26 1,4 C 0,6 C 0,0 C 91 % 1017,5 hPa 0,0 l/m 0 min 0 min 0 W/m 6,4 km/h (2 Bft) 98,00 %
23.11.2018 01:28 1,4 C 0,6 C 0,0 C 91 % 1017,4 hPa 0,0 l/m 0 min 0 min 0 W/m 12,9 km/h (3 Bft) 97,96 %
23.11.2018 01:30 1,4 C 0,6 C 0,0 C 91 % 1017,4 hPa 0,0 l/m 0 min 0 min 0 W/m 9,7 km/h (2 Bft) 94,29 %
23.11.2018 01:32 1,3 C 0,6 C 0,0 C 91 % 1017,5 hPa 0,0 l/m 0 min 0 min 0 W/m 16,1 km/h (3 Bft) 98,15 %
23.11.2018 01:34 1,3 C 0,6 C 0,0 C 91 % 1017,5 hPa 0,0 l/m 0 min 0 min 0 W/m 12,9 km/h (3 Bft) 93,62 %
23.11.2018 01:36 1,3 C 0,6 C 0,0 C 91 % 1017,5 hPa 0,0 l/m 0 min 0 min 0 W/m 9,7 km/h (2 Bft) 97,96 %
23.11.2018 01:38 1,3 C 0,6 C 0,6 C 91 % 1017,4 hPa 0,0 l/m 0 min 0 min 0 W/m 9,7 km/h (2 Bft) 97,87 %
23.11.2018 01:40 1,3 C 0,6 C 0,6 C 91 % 1017,4 hPa 0,0 l/m 0 min 0 min 0 W/m 9,7 km/h (2 Bft) 95,74 %
23.11.2018 01:42 1,3 C 0,6 C 0,0 C 91 % 1017,5 hPa 0,0 l/m 0 min 0 min 0 W/m 9,7 km/h (2 Bft) 97,87 %
23.11.2018 01:44 1,3 C 0,6 C 0,0 C 91 % 1017,5 hPa 0,0 l/m 0 min 0 min 0 W/m 12,9 km/h (3 Bft) 97,92 %
23.11.2018 01:46 1,3 C 0,6 C 0,0 C 91 % 1017,5 hPa 0,0 l/m 0 min 0 min 0 W/m 9,7 km/h (2 Bft) 94,29 %
23.11.2018 01:48 1,3 C 0,6 C 0,0 C 91 % 1017,6 hPa 0,0 l/m 0 min 0 min 0 W/m 16,1 km/h (3 Bft) 95,74 %
23.11.2018 01:50 1,3 C 0,6 C 0,0 C 92 % 1017,6 hPa 0,0 l/m 0 min 0 min 0 W/m 9,7 km/h (2 Bft) 93,62 %
23.11.2018 01:52 1,3 C 0,6 C 0,0 C 92 % 1017,6 hPa 0,0 l/m 0 min 0 min 0 W/m 12,9 km/h (3 Bft) 90,74 %
23.11.2018 01:54 1,2 C 0,6 C 0,0 C 91 % 1017,6 hPa 0,0 l/m 0 min 0 min 0 W/m 6,4 km/h (2 Bft) 89,36 %
23.11.2018 01:56 1,2 C 0,6 C 0,0 C 91 % 1017,6 hPa 0,0 l/m 0 min 0 min 0 W/m 12,9 km/h (3 Bft) 91,49 %
23.11.2018 01:58 1,2 C 0,6 C 0,0 C 91 % 1017,5 hPa 0,0 l/m 0 min 0 min 0 W/m 9,7 km/h (2 Bft) 93,88 %
23.11.2018 02:00 1,2 C 0,6 C 0,0 C 91 % 1017,6 hPa 0,0 l/m 0 min 0 min 0 W/m 9,7 km/h (2 Bft) 93,62 %
23.11.2018 02:02 1,2 C 0,6 C 0,0 C 91 % 1017,6 hPa 0,0 l/m 0 min 0 min 0 W/m 22,5 km/h (4 Bft) 89,80 %
23.11.2018 02:04 1,2 C 0,6 C 0,0 C 92 % 1017,5 hPa 0,0 l/m 0 min 0 min 0 W/m 12,9 km/h (3 Bft) 91,43 %
23.11.2018 02:06 1,2 C 0,6 C 0,0 C 92 % 1017,5 hPa 0,0 l/m 0 min 0 min 0 W/m 12,9 km/h (3 Bft) 94,44 %
23.11.2018 02:08 1,2 C 0,6 C 0,0 C 92 % 1017,5 hPa 0,0 l/m 0 min 0 min 0 W/m 12,9 km/h (3 Bft) 93,62 %
23.11.2018 02:10 1,2 C 0,6 C 0,0 C 92 % 1017,5 hPa 0,0 l/m 0 min 0 min 0 W/m 12,9 km/h (3 Bft) 91,30 %
23.11.2018 02:12 1,1 C 0,6 C 0,0 C 92 % 1017,5 hPa 0,0 l/m 0 min 0 min 0 W/m 6,4 km/h (2 Bft) 94,00 %
23.11.2018 02:14 1,1 C 0,6 C 0,0 C 92 % 1017,4 hPa 0,0 l/m 0 min 0 min 0 W/m 16,1 km/h (3 Bft) 93,88 %
23.11.2018 02:16 1,1 C 0,6 C 0,0 C 92 % 1017,5 hPa 0,0 l/m 0 min 0 min 0 W/m 9,7 km/h (2 Bft) 91,43 %
23.11.2018 02:18 1,1 C 0,6 C 0,0 C 92 % 1017,5 hPa 0,0 l/m 0 min 0 min 0 W/m 9,7 km/h (2 Bft) 92,59 %
23.11.2018 02:20 1,1 C 0,6 C 0,0 C 92 % 1017,5 hPa 0,0 l/m 0 min 0 min 0 W/m 9,7 km/h (2 Bft) 94,00 %
23.11.2018 02:22 1,1 C 0,6 C 0,0 C 92 % 1017,5 hPa 0,0 l/m 0 min 0 min 0 W/m 9,7 km/h (2 Bft) 95,65 %
23.11.2018 02:24 1,1 C 0,6 C 0,0 C 92 % 1017,5 hPa 0,0 l/m 0 min 0 min 0 W/m 9,7 km/h (2 Bft) 95,92 %
23.11.2018 02:26 1,1 C 0,6 C 0,0 C 92 % 1017,5 hPa 0,0 l/m 0 min 0 min 0 W/m 12,9 km/h (3 Bft) 94,29 %
23.11.2018 02:28 1,0 C 0,6 C 0,0 C 92 % 1017,5 hPa 0,0 l/m 0 min 0 min 0 W/m 9,7 km/h (2 Bft) 95,74 %
23.11.2018 02:30 1,1 C 0,6 C 0,0 C 92 % 1017,4 hPa 0,0 l/m 0 min 0 min 0 W/m 9,7 km/h (2 Bft) 96,30 %
23.11.2018 02:32 1,0 C 0,6 C 0,0 C 92 % 1017,5 hPa 0,0 l/m 0 min 0 min 0 W/m 9,7 km/h (2 Bft) 95,74 %
23.11.2018 02:34 1,0 C 0,6 C 0,0 C 92 % 1017,5 hPa 0,0 l/m 0 min 0 min 0 W/m 9,7 km/h (2 Bft) 97,96 %
23.11.2018 02:36 1,0 C 0,6 C 0,0 C 92 % 1017,5 hPa 0,0 l/m 0 min 0 min 0 W/m 9,7 km/h (2 Bft) 100,00 %
23.11.2018 02:38 1,0 C 0,6 C 0,0 C 92 % 1017,5 hPa 0,0 l/m 0 min 0 min 0 W/m 9,7 km/h (2 Bft) 100,00 %
23.11.2018 02:40 1,0 C 0,6 C 0,0 C 92 % 1017,4 hPa 0,0 l/m 0 min 0 min 0 W/m 9,7 km/h (2 Bft) 97,87 %
23.11.2018 02:42 1,0 C 0,6 C 0,0 C 92 % 1017,5 hPa 0,0 l/m 0 min 0 min 0 W/m 9,7 km/h (2 Bft) 100,00 %
23.11.2018 02:44 1,0 C 0,6 C 0,0 C 92 % 1017,5 hPa 0,0 l/m 0 min 0 min 0 W/m 9,7 km/h (2 Bft) 100,00 %
23.11.2018 02:46 1,0 C 0,6 C 0,0 C 92 % 1017,5 hPa 0,0 l/m 0 min 0 min 0 W/m 16,1 km/h (3 Bft) 100,00 %
23.11.2018 02:48 0,9 C 0,6 C 0,0 C 92 % 1017,4 hPa 0,0 l/m 0 min 0 min 0 W/m 9,7 km/h (2 Bft) 100,00 %
23.11.2018 02:50 0,9 C 0,6 C 0,0 C 92 % 1017,4 hPa 0,0 l/m 0 min 0 min 0 W/m 9,7 km/h (2 Bft) 98,00 %
23.11.2018 02:52 0,9 C 0,6 C 0,0 C 92 % 1017,4 hPa 0,0 l/m 0 min 0 min 0 W/m 16,1 km/h (3 Bft) 100,00 %
23.11.2018 02:54 0,9 C 0,6 C 0,0 C 92 % 1017,4 hPa 0,0 l/m 0 min 0 min 0 W/m 19,3 km/h (3 Bft) 100,00 %
23.11.2018 02:56 0,9 C 0,6 C 0,0 C 92 % 1017,4 hPa 0,0 l/m 0 min 0 min 0 W/m 12,9 km/h (3 Bft) 98,15 %
23.11.2018 02:58 0,9 C 0,6 C 0,0 C 92 % 1017,4 hPa 0,0 l/m 0 min 0 min 0 W/m 9,7 km/h (2 Bft) 98,00 %
23.11.2018 03:00 0,9 C 0,6 C 0,0 C 92 % 1017,4 hPa 0,0 l/m 0 min 0 min 0 W/m 19,3 km/h (3 Bft) 100,00 %
23.11.2018 03:02 0,9 C 0,6 C 0,0 C 92 % 1017,4 hPa 0,0 l/m 0 min 0 min 0 W/m 16,1 km/h (3 Bft) 100,00 %
23.11.2018 03:04 0,9 C 0,6 C 0,0 C 92 % 1017,4 hPa 0,0 l/m 0 min 0 min 0 W/m 12,9 km/h (3 Bft) 100,00 %
23.11.2018 03:06 0,9 C 0,6 C 0,0 C 92 % 1017,4 hPa 0,0 l/m 0 min 0 min 0 W/m 16,1 km/h (3 Bft) 100,00 %
23.11.2018 03:08 0,9 C 0,6 C 0,0 C 92 % 1017,4 hPa 0,0 l/m 0 min 0 min 0 W/m 19,3 km/h (3 Bft) 100,00 %
23.11.2018 03:10 1,0 C 0,6 C 0,0 C 92 % 1017,4 hPa 0,0 l/m 0 min 0 min 0 W/m 9,7 km/h (2 Bft) 100,00 %
23.11.2018 03:12 1,0 C 0,6 C 0,0 C 92 % 1017,3 hPa 0,0 l/m 0 min 0 min 0 W/m 9,7 km/h (2 Bft) 100,00 %
23.11.2018 03:14 1,0 C 0,6 C 0,0 C 92 % 1017,3 hPa 0,0 l/m 0 min 0 min 0 W/m 12,9 km/h (3 Bft) 100,00 %
23.11.2018 03:16 1,0 C 0,6 C 0,0 C 92 % 1017,3 hPa 0,0 l/m 0 min 0 min 0 W/m 9,7 km/h (2 Bft) 97,22 %
23.11.2018 03:18 1,0 C 0,6 C 0,0 C 92 % 1017,3 hPa 0,0 l/m 0 min 0 min 0 W/m 9,7 km/h (2 Bft) 100,00 %
23.11.2018 03:20 1,0 C 0,6 C 0,0 C 92 % 1017,3 hPa 0,0 l/m 0 min 0 min 0 W/m 12,9 km/h (3 Bft) 100,00 %
23.11.2018 03:22 1,0 C 0,6 C 0,0 C 92 % 1017,4 hPa 0,0 l/m 0 min 0 min 0 W/m 9,7 km/h (2 Bft) 100,00 %
23.11.2018 03:24 1,0 C 0,6 C 0,0 C 92 % 1017,4 hPa 0,0 l/m 0 min 0 min 0 W/m 16,1 km/h (3 Bft) 97,14 %
23.11.2018 03:26 1,0 C 0,6 C 0,0 C 92 % 1017,3 hPa 0,0 l/m 0 min 0 min 0 W/m 9,7 km/h (2 Bft) 100,00 %
23.11.2018 03:28 0,9 C 0,6 C 0,0 C 92 % 1017,2 hPa 0,0 l/m 0 min 0 min 0 W/m 6,4 km/h (2 Bft) 100,00 %
23.11.2018 03:30 0,9 C 0,6 C 0,0 C 92 % 1017,3 hPa 0,0 l/m 0 min 0 min 0 W/m 9,7 km/h (2 Bft) 100,00 %
23.11.2018 03:32 0,9 C 0,6 C 0,0 C 92 % 1017,3 hPa 0,0 l/m 0 min 0 min 0 W/m 12,9 km/h (3 Bft) 100,00 %
23.11.2018 03:34 0,9 C 0,6 C 0,0 C 92 % 1017,3 hPa 0,0 l/m 0 min 0 min 0 W/m 9,7 km/h (2 Bft) 100,00 %
23.11.2018 03:36 0,9 C 0,6 C 0,0 C 92 % 1017,4 hPa 0,0 l/m 0 min 0 min 0 W/m 16,1 km/h (3 Bft) 100,00 %
23.11.2018 03:38 0,9 C 0,6 C 0,0 C 92 % 1017,3 hPa 0,0 l/m 0 min 0 min 0 W/m 9,7 km/h (2 Bft) 100,00 %
23.11.2018 03:40 0,9 C 0,6 C 0,0 C 92 % 1017,3 hPa 0,0 l/m 0 min 0 min 0 W/m 9,7 km/h (2 Bft) 100,00 %
23.11.2018 03:42 0,9 C 0,6 C 0,0 C 92 % 1017,3 hPa 0,0 l/m 0 min 0 min 0 W/m 9,7 km/h (2 Bft) 100,00 %
23.11.2018 03:44 0,9 C 0,6 C 0,0 C 92 % 1017,3 hPa 0,0 l/m 0 min 0 min 0 W/m 16,1 km/h (3 Bft) 100,00 %
23.11.2018 03:46 0,9 C 0,6 C 0,0 C 92 % 1017,4 hPa 0,0 l/m 0 min 0 min 0 W/m 16,1 km/h (3 Bft) 100,00 %
23.11.2018 03:48 0,9 C 0,6 C 0,0 C 92 % 1017,4 hPa 0,0 l/m 0 min 0 min 0 W/m 9,7 km/h (2 Bft) 97,87 %
23.11.2018 03:50 0,9 C 0,0 C 0,0 C 92 % 1017,3 hPa 0,0 l/m 0 min 0 min 0 W/m 9,7 km/h (2 Bft) 100,00 %
23.11.2018 03:52 0,9 C 0,0 C 0,0 C 92 % 1017,3 hPa 0,0 l/m 0 min 0 min 0 W/m 6,4 km/h (2 Bft) 100,00 %
23.11.2018 03:54 0,9 C 0,0 C 0,0 C 92 % 1017,3 hPa 0,0 l/m 0 min 0 min 0 W/m 9,7 km/h (2 Bft) 100,00 %
23.11.2018 03:56 0,8 C 0,0 C 0,0 C 92 % 1017,3 hPa 0,0 l/m 0 min 0 min 0 W/m 9,7 km/h (2 Bft) 100,00 %
23.11.2018 03:58 0,8 C 0,0 C 0,0 C 92 % 1017,2 hPa 0,0 l/m 0 min 0 min 0 W/m 6,4 km/h (2 Bft) 100,00 %
23.11.2018 04:00 0,8 C 0,0 C 0,0 C 92 % 1017,2 hPa 0,0 l/m 0 min 0 min 0 W/m 9,7 km/h (2 Bft) 100,00 %
23.11.2018 04:05 0,8 C 0,0 C -0,6 C 92 % 1017,2 hPa 0,0 l/m 0 min 0 min 0 W/m 12,9 km/h (3 Bft) 100,00 %
23.11.2018 04:06 0,8 C 0,0 C -0,6 C 92 % 1017,2 hPa 0,0 l/m 0 min 0 min 0 W/m 9,7 km/h (2 Bft) 95,65 %
23.11.2018 04:08 0,8 C 0,0 C -0,6 C 92 % 1017,1 hPa 0,0 l/m 0 min 0 min 0 W/m 6,4 km/h (2 Bft) 100,00 %
23.11.2018 04:10 0,8 C 0,0 C -0,6 C 92 % 1017,1 hPa 0,0 l/m 0 min 0 min 0 W/m 9,7 km/h (2 Bft) 97,87 %
23.11.2018 04:12 0,8 C 0,0 C -0,6 C 92 % 1017,1 hPa 0,0 l/m 0 min 0 min 0 W/m 3,2 km/h (1 Bft) 100,00 %
23.11.2018 04:14 0,7 C 0,0 C -0,6 C 92 % 1017,1 hPa 0,0 l/m 0 min 0 min 0 W/m 9,7 km/h (2 Bft) 100,00 %
23.11.2018 04:16 0,7 C 0,0 C -0,6 C 92 % 1017,2 hPa 0,0 l/m 0 min 0 min 0 W/m 6,4 km/h (2 Bft) 97,83 %
23.11.2018 04:18 0,7 C 0,0 C -0,6 C 92 % 1017,2 hPa 0,0 l/m 0 min 0 min 0 W/m 9,7 km/h (2 Bft) 95,74 %
23.11.2018 04:20 0,7 C 0,0 C -0,6 C 92 % 1017,2 hPa 0,0 l/m 0 min 0 min 0 W/m 9,7 km/h (2 Bft) 95,74 %
23.11.2018 04:22 0,7 C 0,0 C -0,6 C 92 % 1017,2 hPa 0,0 l/m 0 min 0 min 0 W/m 9,7 km/h (2 Bft) 97,87 %
23.11.2018 04:24 0,7 C 0,0 C -0,6 C 92 % 1017,1 hPa 0,0 l/m 0 min 0 min 0 W/m 6,4 km/h (2 Bft) 95,74 %
23.11.2018 04:26 0,7 C 0,0 C -0,6 C 92 % 1017,1 hPa 0,0 l/m 0 min 0 min 0 W/m 9,7 km/h (2 Bft) 97,87 %
23.11.2018 04:28 0,7 C 0,0 C -0,6 C 92 % 1017,2 hPa 0,0 l/m 0 min 0 min 0 W/m 6,4 km/h (2 Bft) 97,83 %
23.11.2018 04:30 0,7 C 0,0 C -0,6 C 92 % 1017,1 hPa 0,0 l/m 0 min 0 min 0 W/m 9,7 km/h (2 Bft) 95,74 %
23.11.2018 04:32 0,7 C 0,0 C -0,6 C 93 % 1017,1 hPa 0,0 l/m 0 min 0 min 0 W/m 6,4 km/h (2 Bft) 97,87 %
23.11.2018 04:34 0,6 C 0,0 C -0,6 C 93 % 1017,1 hPa 0,0 l/m 0 min 0 min 0 W/m 6,4 km/h (2 Bft) 97,87 %
23.11.2018 04:36 0,6 C 0,0 C -0,6 C 93 % 1017,0 hPa 0,0 l/m 0 min 0 min 0 W/m 16,1 km/h (3 Bft) 96,55 %
23.11.2018 04:38 0,6 C 0,0 C -0,6 C 93 % 1017,1 hPa 0,0 l/m 0 min 0 min 0 W/m 6,4 km/h (2 Bft) 97,14 %
23.11.2018 04:40 0,6 C 0,0 C -0,6 C 93 % 1017,1 hPa 0,0 l/m 0 min 0 min 0 W/m 3,2 km/h (1 Bft) 97,87 %
23.11.2018 04:42 0,6 C 0,0 C -0,6 C 93 % 1017,0 hPa 0,0 l/m 0 min 0 min 0 W/m 0,0 km/h (0 Bft) 93,62 %
23.11.2018 04:44 0,6 C 0,0 C -0,6 C 93 % 1017,1 hPa 0,0 l/m 0 min 0 min 0 W/m 0,0 km/h (0 Bft) 95,74 %
23.11.2018 04:46 0,6 C 0,0 C -0,6 C 93 % 1017,1 hPa 0,0 l/m 0 min 0 min 0 W/m 9,7 km/h (2 Bft) 95,74 %
23.11.2018 04:48 0,6 C 0,0 C -0,6 C 93 % 1017,1 hPa 0,0 l/m 0 min 0 min 0 W/m 9,7 km/h (2 Bft) 95,74 %
23.11.2018 04:50 0,6 C 0,0 C -0,6 C 93 % 1017,2 hPa 0,0 l/m 0 min 0 min 0 W/m 6,4 km/h (2 Bft) 91,30 %
23.11.2018 04:52 0,5 C 0,0 C -0,6 C 93 % 1017,2 hPa 0,0 l/m 0 min 0 min 0 W/m 6,4 km/h (2 Bft) 95,74 %
23.11.2018 04:54 0,5 C 0,0 C -0,6 C 93 % 1017,2 hPa 0,0 l/m 0 min 0 min 0 W/m 9,7 km/h (2 Bft) 95,74 %
23.11.2018 04:56 0,5 C 0,0 C -0,6 C 93 % 1017,2 hPa 0,0 l/m 0 min 0 min 0 W/m 9,7 km/h (2 Bft) 95,74 %
23.11.2018 04:58 0,5 C 0,0 C -0,6 C 93 % 1017,2 hPa 0,0 l/m 0 min 0 min 0 W/m 3,2 km/h (1 Bft) 95,74 %
23.11.2018 05:00 0,5 C 0,0 C -0,6 C 93 % 1017,1 hPa 0,0 l/m 0 min 0 min 0 W/m 16,1 km/h (3 Bft) 95,74 %
23.11.2018 05:02 0,5 C 0,0 C -0,6 C 93 % 1017,2 hPa 0,0 l/m 0 min 0 min 0 W/m 12,9 km/h (3 Bft) 97,83 %
23.11.2018 05:04 0,5 C 0,0 C -0,6 C 93 % 1017,2 hPa 0,0 l/m 0 min 0 min 0 W/m 9,7 km/h (2 Bft) 97,87 %
23.11.2018 05:06 0,5 C 0,0 C -0,6 C 93 % 1017,1 hPa 0,0 l/m 0 min 0 min 0 W/m 9,7 km/h (2 Bft) 97,87 %
23.11.2018 05:08 0,5 C 0,0 C -0,6 C 93 % 1017,1 hPa 0,0 l/m 0 min 0 min 0 W/m 9,7 km/h (2 Bft) 93,62 %
23.11.2018 05:10 0,5 C 0,0 C -0,6 C 93 % 1017,1 hPa 0,0 l/m 0 min 0 min 0 W/m 9,7 km/h (2 Bft) 95,74 %
23.11.2018 05:12 0,5 C 0,0 C -0,6 C 93 % 1017,1 hPa 0,0 l/m 0 min 0 min 0 W/m 12,9 km/h (3 Bft) 95,74 %
23.11.2018 05:14 0,5 C 0,0 C -0,6 C 93 % 1017,1 hPa 0,0 l/m 0 min 0 min 0 W/m 9,7 km/h (2 Bft) 95,65 %
23.11.2018 05:16 0,5 C 0,0 C -0,6 C 93 % 1017,1 hPa 0,0 l/m 0 min 0 min 0 W/m 9,7 km/h (2 Bft) 95,74 %
23.11.2018 05:18 0,5 C 0,0 C -0,6 C 93 % 1017,1 hPa 0,0 l/m 0 min 0 min 0 W/m 9,7 km/h (2 Bft) 95,74 %
23.11.2018 05:20 0,5 C 0,0 C -0,6 C 93 % 1017,0 hPa 0,0 l/m 0 min 0 min 0 W/m 16,1 km/h (3 Bft) 95,74 %
23.11.2018 05:22 0,5 C 0,0 C -0,6 C 93 % 1017,0 hPa 0,0 l/m 0 min 0 min 0 W/m 6,4 km/h (2 Bft) 93,62 %
23.11.2018 05:24 0,5 C 0,0 C -0,6 C 93 % 1017,1 hPa 0,0 l/m 0 min 0 min 0 W/m 6,4 km/h (2 Bft) 93,62 %
23.11.2018 05:26 0,5 C 0,0 C -0,6 C 93 % 1017,1 hPa 0,0 l/m 0 min 0 min 0 W/m 6,4 km/h (2 Bft) 97,83 %
23.11.2018 05:28 0,5 C 0,0 C -0,6 C 93 % 1017,0 hPa 0,0 l/m 0 min 0 min 0 W/m 6,4 km/h (2 Bft) 97,87 %
23.11.2018 05:30 0,5 C 0,0 C -0,6 C 93 % 1017,0 hPa 0,0 l/m 0 min 0 min 0 W/m 6,4 km/h (2 Bft) 97,87 %
23.11.2018 05:32 0,5 C 0,0 C -0,6 C 93 % 1017,0 hPa 0,0 l/m 0 min 0 min 0 W/m 9,7 km/h (2 Bft) 95,74 %
23.11.2018 05:34 0,5 C 0,0 C -0,6 C 93 % 1017,1 hPa 0,0 l/m 0 min 0 min 0 W/m 6,4 km/h (2 Bft) 95,74 %
23.11.2018 05:36 0,5 C 0,0 C -0,6 C 93 % 1017,0 hPa 0,0 l/m 0 min 0 min 0 W/m 9,7 km/h (2 Bft) 98,28 %
23.11.2018 05:38 0,5 C 0,0 C -0,6 C 93 % 1017,0 hPa 0,0 l/m 0 min 0 min 0 W/m 6,4 km/h (2 Bft) 97,14 %
23.11.2018 05:40 0,5 C 0,0 C -0,6 C 93 % 1017,1 hPa 0,0 l/m 0 min 0 min 0 W/m 3,2 km/h (1 Bft) 97,87 %
23.11.2018 05:42 0,5 C 0,0 C -0,6 C 93 % 1017,1 hPa 0,0 l/m 0 min 0 min 0 W/m 6,4 km/h (2 Bft) 97,87 %
23.11.2018 05:44 0,5 C 0,0 C -0,6 C 93 % 1017,1 hPa 0,0 l/m 0 min 0 min 0 W/m 9,7 km/h (2 Bft) 97,87 %
23.11.2018 05:46 0,5 C 0,0 C -0,6 C 93 % 1017,1 hPa 0,0 l/m 0 min 0 min 0 W/m 9,7 km/h (2 Bft) 97,87 %
23.11.2018 05:48 0,5 C 0,0 C -0,6 C 93 % 1017,1 hPa 0,0 l/m 0 min 0 min 0 W/m 12,9 km/h (3 Bft) 95,65 %
23.11.2018 05:50 0,5 C 0,0 C 0,0 C 93 % 1017,1 hPa 0,0 l/m 0 min 0 min 0 W/m 6,4 km/h (2 Bft) 97,87 %
23.11.2018 05:52 0,5 C 0,0 C 0,0 C 93 % 1017,1 hPa 0,0 l/m 0 min 0 min 0 W/m 9,7 km/h (2 Bft) 97,87 %
23.11.2018 05:54 0,5 C 0,6 C 0,0 C 93 % 1017,1 hPa 0,0 l/m 0 min 0 min 0 W/m 9,7 km/h (2 Bft) 97,87 %
23.11.2018 05:56 0,5 C 0,6 C 0,0 C 93 % 1017,1 hPa 0,0 l/m 0 min 0 min 0 W/m 9,7 km/h (2 Bft) 97,87 %
23.11.2018 05:58 0,5 C 0,6 C 0,0 C 93 % 1017,1 hPa 0,0 l/m 0 min 0 min 0 W/m 12,9 km/h (3 Bft) 97,87 %
23.11.2018 06:00 0,5 C 0,6 C 0,0 C 93 % 1017,1 hPa 0,0 l/m 0 min 0 min 0 W/m 9,7 km/h (2 Bft) 97,83 %
23.11.2018 06:02 0,5 C 0,6 C 0,0 C 93 % 1017,1 hPa 0,0 l/m 0 min 0 min 0 W/m 6,4 km/h (2 Bft) 91,49 %
23.11.2018 06:04 0,5 C 0,6 C 0,0 C 93 % 1017,0 hPa 0,0 l/m 0 min 0 min 0 W/m 9,7 km/h (2 Bft) 97,87 %
23.11.2018 06:08 0,6 C 0,6 C 0,0 C 93 % 1017,1 hPa 0,0 l/m 0 min 0 min 0 W/m 12,9 km/h (3 Bft) 97,87 %
23.11.2018 06:10 0,6 C 0,6 C 0,0 C 93 % 1017,0 hPa 0,0 l/m 0 min 0 min 0 W/m 9,7 km/h (2 Bft) 97,87 %
23.11.2018 06:12 0,6 C 0,6 C 0,0 C 93 % 1017,0 hPa 0,0 l/m 0 min 0 min 0 W/m 9,7 km/h (2 Bft) 95,65 %
23.11.2018 06:14 0,6 C 0,6 C 0,0 C 93 % 1017,0 hPa 0,0 l/m 0 min 0 min 0 W/m 9,7 km/h (2 Bft) 100,00 %
23.11.2018 06:16 0,6 C 0,6 C 0,0 C 93 % 1017,0 hPa 0,0 l/m 0 min 0 min 0 W/m 6,4 km/h (2 Bft) 97,87 %
23.11.2018 06:18 0,6 C 0,6 C 0,0 C 93 % 1017,0 hPa 0,0 l/m 0 min 0 min 0 W/m 6,4 km/h (2 Bft) 100,00 %
23.11.2018 06:20 0,7 C 0,6 C 0,0 C 93 % 1016,9 hPa 0,0 l/m 0 min 0 min 0 W/m 9,7 km/h (2 Bft) 100,00 %
23.11.2018 06:22 0,7 C 0,6 C 0,0 C 93 % 1016,9 hPa 0,0 l/m 0 min 0 min 0 W/m 12,9 km/h (3 Bft) 100,00 %
23.11.2018 06:24 0,7 C 0,6 C 0,0 C 93 % 1016,9 hPa 0,0 l/m 0 min 0 min 0 W/m 12,9 km/h (3 Bft) 97,83 %
23.11.2018 06:26 0,7 C 0,6 C 0,0 C 93 % 1016,9 hPa 0,0 l/m 0 min 0 min 0 W/m 9,7 km/h (2 Bft) 100,00 %
23.11.2018 06:28 0,7 C 0,6 C 0,0 C 93 % 1016,8 hPa 0,0 l/m 0 min 0 min 0 W/m 16,1 km/h (3 Bft) 100,00 %
23.11.2018 06:30 0,7 C 0,6 C 0,0 C 93 % 1016,8 hPa 0,0 l/m 0 min 0 min 0 W/m 12,9 km/h (3 Bft) 95,74 %
23.11.2018 06:32 0,7 C 0,6 C 0,0 C 93 % 1016,7 hPa 0,0 l/m 0 min 0 min 0 W/m 9,7 km/h (2 Bft) 97,87 %
23.11.2018 06:34 0,7 C 0,6 C 0,0 C 93 % 1016,8 hPa 0,0 l/m 0 min 0 min 0 W/m 9,7 km/h (2 Bft) 93,62 %
23.11.2018 06:36 0,8 C 0,6 C 0,0 C 93 % 1016,7 hPa 0,0 l/m 0 min 0 min 0 W/m 9,7 km/h (2 Bft) 98,28 %
23.11.2018 06:38 0,8 C 0,6 C 0,0 C 93 % 1016,7 hPa 0,0 l/m 0 min 0 min 0 W/m 9,7 km/h (2 Bft) 100,00 %
23.11.2018 06:40 0,8 C 0,6 C 0,0 C 94 % 1016,6 hPa 0,0 l/m 0 min 0 min 0 W/m 19,3 km/h (3 Bft) 100,00 %
23.11.2018 06:42 0,8 C 0,6 C 0,0 C 94 % 1016,6 hPa 0,0 l/m 0 min 0 min 0 W/m 9,7 km/h (2 Bft) 100,00 %
23.11.2018 06:44 0,9 C 0,6 C 0,0 C 94 % 1016,6 hPa 0,0 l/m 0 min 0 min 0 W/m 6,4 km/h (2 Bft) 97,87 %
23.11.2018 06:46 0,9 C 0,6 C 0,0 C 94 % 1016,6 hPa 0,0 l/m 0 min 0 min 0 W/m 9,7 km/h (2 Bft) 97,83 %
23.11.2018 06:48 0,9 C 0,6 C 0,0 C 94 % 1016,6 hPa 0,0 l/m 0 min 0 min 0 W/m 6,4 km/h (2 Bft) 100,00 %
23.11.2018 06:50 0,9 C 0,6 C 0,0 C 94 % 1016,6 hPa 0,0 l/m 0 min 0 min 0 W/m 3,2 km/h (1 Bft) 100,00 %
23.11.2018 06:52 0,9 C 0,6 C 0,0 C 94 % 1016,6 hPa 0,0 l/m 0 min 0 min 0 W/m 6,4 km/h (2 Bft) 97,87 %
23.11.2018 06:54 0,9 C 0,6 C 0,0 C 94 % 1016,6 hPa 0,0 l/m 0 min 0 min 0 W/m 9,7 km/h (2 Bft) 97,87 %
23.11.2018 06:56 0,9 C 0,6 C 0,0 C 94 % 1016,6 hPa 0,0 l/m 0 min 0 min 0 W/m 12,9 km/h (3 Bft) 95,74 %
23.11.2018 06:58 0,9 C 0,6 C 0,0 C 94 % 1016,7 hPa 0,0 l/m 0 min 0 min 0 W/m 12,9 km/h (3 Bft) 97,83 %
23.11.2018 07:00 0,9 C 0,6 C 0,0 C 94 % 1016,7 hPa 0,0 l/m 0 min 0 min 0 W/m 9,7 km/h (2 Bft) 97,87 %
23.11.2018 07:02 0,9 C 0,6 C 0,0 C 94 % 1016,7 hPa 0,0 l/m 0 min 0 min 0 W/m 6,4 km/h (2 Bft) 95,74 %
23.11.2018 07:04 0,9 C 0,6 C 0,0 C 94 % 1016,7 hPa 0,0 l/m 0 min 0 min 0 W/m 9,7 km/h (2 Bft) 95,74 %
23.11.2018 07:06 0,9 C 0,6 C 0,0 C 94 % 1016,7 hPa 0,0 l/m 0 min 0 min 0 W/m 12,9 km/h (3 Bft) 96,55 %
23.11.2018 07:08 0,9 C 0,6 C 0,0 C 94 % 1016,6 hPa 0,0 l/m 0 min 0 min 0 W/m 9,7 km/h (2 Bft) 97,22 %
23.11.2018 07:10 0,9 C 0,6 C 0,0 C 93 % 1016,7 hPa 0,0 l/m 0 min 0 min 0 W/m 12,9 km/h (3 Bft) 97,83 %
23.11.2018 07:12 0,9 C 0,6 C 0,0 C 93 % 1016,6 hPa 0,0 l/m 0 min 0 min 0 W/m 9,7 km/h (2 Bft) 95,74 %
23.11.2018 07:14 0,9 C 0,6 C 0,0 C 93 % 1016,6 hPa 0,0 l/m 0 min 0 min 0 W/m 9,7 km/h (2 Bft) 97,87 %
23.11.2018 07:16 0,9 C 0,6 C 0,0 C 93 % 1016,7 hPa 0,0 l/m 0 min 0 min 0 W/m 12,9 km/h (3 Bft) 97,87 %
23.11.2018 07:18 0,9 C 0,6 C 0,0 C 93 % 1016,6 hPa 0,0 l/m 0 min 0 min 0 W/m 9,7 km/h (2 Bft) 97,87 %
23.11.2018 07:20 0,9 C 0,6 C 0,0 C 93 % 1016,6 hPa 0,0 l/m 0 min 0 min 0 W/m 6,4 km/h (2 Bft) 97,87 %
23.11.2018 07:22 0,9 C 0,6 C 0,0 C 93 % 1016,6 hPa 0,0 l/m 0 min 0 min 0 W/m 9,7 km/h (2 Bft) 97,83 %
23.11.2018 07:24 0,9 C 0,6 C 0,0 C 93 % 1016,6 hPa 0,0 l/m 0 min 0 min 0 W/m 9,7 km/h (2 Bft) 93,62 %
23.11.2018 07:26 0,9 C 0,6 C 0,0 C 93 % 1016,6 hPa 0,0 l/m 0 min 0 min 0 W/m 9,7 km/h (2 Bft) 93,62 %
23.11.2018 07:28 0,9 C 0,6 C 0,0 C 93 % 1016,5 hPa 0,0 l/m 0 min 0 min 0 W/m 9,7 km/h (2 Bft) 93,62 %
23.11.2018 07:30 0,9 C 0,6 C 0,0 C 93 % 1016,6 hPa 0,0 l/m 0 min 0 min 0 W/m 9,7 km/h (2 Bft) 95,74 %
23.11.2018 07:32 0,9 C 0,6 C 0,0 C 93 % 1016,6 hPa 0,0 l/m 0 min 0 min 0 W/m 9,7 km/h (2 Bft) 95,74 %
23.11.2018 07:34 0,9 C 0,6 C 0,0 C 93 % 1016,7 hPa 0,0 l/m 0 min 0 min 0 W/m 12,9 km/h (3 Bft) 97,83 %
23.11.2018 07:36 0,9 C 0,6 C 0,0 C 93 % 1016,7 hPa 0,0 l/m 0 min 0 min 0 W/m 16,1 km/h (3 Bft) 96,61 %
23.11.2018 07:38 0,9 C 0,6 C 0,0 C 93 % 1016,7 hPa 0,0 l/m 0 min 0 min 0 W/m 12,9 km/h (3 Bft) 97,14 %
23.11.2018 07:40 0,9 C 0,6 C 0,0 C 93 % 1016,7 hPa 0,0 l/m 0 min 0 min 0 W/m 12,9 km/h (3 Bft) 97,87 %
23.11.2018 07:42 0,9 C 0,6 C 0,0 C 93 % 1016,7 hPa 0,0 l/m 0 min 0 min 0 W/m 12,9 km/h (3 Bft) 93,62 %
23.11.2018 07:44 0,9 C 0,6 C 0,0 C 93 % 1016,8 hPa 0,0 l/m 0 min 0 min 0 W/m 12,9 km/h (3 Bft) 95,74 %
23.11.2018 07:46 0,9 C 0,6 C 0,0 C 93 % 1016,7 hPa 0,0 l/m 0 min 0 min 0 W/m 12,9 km/h (3 Bft) 97,83 %
23.11.2018 07:48 0,9 C 0,6 C 0,0 C 93 % 1016,7 hPa 0,0 l/m 0 min 0 min 0 W/m 16,1 km/h (3 Bft) 97,87 %
23.11.2018 07:50 0,9 C 0,6 C 0,0 C 93 % 1016,7 hPa 0,0 l/m 0 min 0 min 0 W/m 9,7 km/h (2 Bft) 97,87 %
23.11.2018 07:52 0,9 C 0,6 C 0,0 C 93 % 1016,7 hPa 0,0 l/m 0 min 0 min 0 W/m 12,9 km/h (3 Bft) 97,87 %
23.11.2018 07:54 0,9 C 0,6 C 0,0 C 93 % 1016,8 hPa 0,0 l/m 0 min 0 min 0 W/m 9,7 km/h (2 Bft) 97,87 %
23.11.2018 07:56 0,9 C 0,6 C 0,0 C 93 % 1016,8 hPa 0,0 l/m 0 min 0 min 0 W/m 9,7 km/h (2 Bft) 97,83 %
23.11.2018 07:58 0,8 C 0,0 C 0,0 C 93 % 1016,8 hPa 0,0 l/m 0 min 0 min 0 W/m 6,4 km/h (2 Bft) 97,87 %
23.11.2018 08:00 0,8 C 0,0 C 0,0 C 93 % 1016,8 hPa 0,0 l/m 0 min 0 min 0 W/m 6,4 km/h (2 Bft) 93,62 %
23.11.2018 08:02 0,8 C 0,6 C 0,0 C 93 % 1016,7 hPa 0,0 l/m 0 min 0 min 0 W/m 12,9 km/h (3 Bft) 97,87 %
23.11.2018 08:04 0,8 C 0,6 C 0,0 C 93 % 1016,7 hPa 0,0 l/m 0 min 0 min 4 W/m 9,7 km/h (2 Bft) 97,87 %
23.11.2018 08:06 0,8 C 0,6 C 0,0 C 93 % 1016,8 hPa 0,0 l/m 0 min 0 min 5 W/m 12,9 km/h (3 Bft) 96,55 %
23.11.2018 08:08 0,8 C 0,6 C 0,0 C 93 % 1016,8 hPa 0,0 l/m 0 min 0 min 5 W/m 9,7 km/h (2 Bft) 97,14 %
23.11.2018 08:10 0,8 C 0,6 C 0,0 C 93 % 1016,8 hPa 0,0 l/m 0 min 0 min 7 W/m 9,7 km/h (2 Bft) 95,74 %
23.11.2018 08:12 0,8 C 0,6 C 0,0 C 93 % 1016,8 hPa 0,0 l/m 0 min 0 min 8 W/m 16,1 km/h (3 Bft) 95,74 %
23.11.2018 08:14 0,8 C 0,6 C 0,0 C 93 % 1016,7 hPa 0,0 l/m 0 min 0 min 9 W/m 6,4 km/h (2 Bft) 100,00 %
23.11.2018 08:16 0,8 C 0,6 C 0,0 C 93 % 1016,7 hPa 0,0 l/m 0 min 0 min 9 W/m 12,9 km/h (3 Bft) 97,87 %
23.11.2018 08:18 0,8 C 0,6 C 0,0 C 93 % 1016,7 hPa 0,0 l/m 0 min 0 min 9 W/m 19,3 km/h (3 Bft) 100,00 %
23.11.2018 08:20 0,8 C 0,6 C 0,0 C 93 % 1016,7 hPa 0,0 l/m 0 min 0 min 9 W/m 12,9 km/h (3 Bft) 100,00 %
23.11.2018 08:22 0,8 C 0,6 C 0,0 C 93 % 1016,8 hPa 0,0 l/m 0 min 0 min 11 W/m 16,1 km/h (3 Bft) 100,00 %
23.11.2018 08:24 0,8 C 0,6 C 0,0 C 93 % 1016,8 hPa 0,0 l/m 0 min 0 min 12 W/m 9,7 km/h (2 Bft) 97,87 %
23.11.2018 08:26 0,8 C 0,6 C 0,0 C 93 % 1016,9 hPa 0,0 l/m 0 min 0 min 12 W/m 9,7 km/h (2 Bft) 100,00 %
23.11.2018 08:28 0,8 C 0,6 C 0,0 C 93 % 1016,8 hPa 0,0 l/m 0 min 0 min 12 W/m 9,7 km/h (2 Bft) 100,00 %
23.11.2018 08:30 0,8 C 0,6 C 0,0 C 93 % 1016,9 hPa 0,0 l/m 0 min 0 min 12 W/m 9,7 km/h (2 Bft) 100,00 %
23.11.2018 08:32 0,8 C 0,6 C 0,0 C 93 % 1016,8 hPa 0,0 l/m 0 min 0 min 15 W/m 12,9 km/h (3 Bft) 100,00 %
23.11.2018 08:34 0,8 C 0,6 C 0,0 C 93 % 1016,8 hPa 0,0 l/m 0 min 0 min 17 W/m 9,7 km/h (2 Bft) 100,00 %
23.11.2018 08:36 0,8 C 0,6 C 0,0 C 93 % 1016,7 hPa 0,0 l/m 0 min 0 min 19 W/m 9,7 km/h (2 Bft) 100,00 %
23.11.2018 08:38 0,9 C 0,6 C 0,0 C 93 % 1016,8 hPa 0,0 l/m 0 min 0 min 20 W/m 12,9 km/h (3 Bft) 100,00 %
23.11.2018 08:40 0,9 C 0,6 C 0,0 C 93 % 1016,8 hPa 0,0 l/m 0 min 0 min 21 W/m 19,3 km/h (3 Bft) 100,00 %
23.11.2018 08:42 0,9 C 1,1 C 0,0 C 93 % 1016,8 hPa 0,0 l/m 0 min 0 min 21 W/m 16,1 km/h (3 Bft) 100,00 %
23.11.2018 08:44 0,9 C 1,1 C 0,6 C 93 % 1016,7 hPa 0,0 l/m 0 min 0 min 21 W/m 12,9 km/h (3 Bft) 100,00 %
23.11.2018 08:46 1,0 C 1,1 C 0,6 C 93 % 1016,7 hPa 0,0 l/m 0 min 0 min 21 W/m 12,9 km/h (3 Bft) 100,00 %
23.11.2018 08:48 1,0 C 1,1 C 0,6 C 93 % 1016,7 hPa 0,0 l/m 0 min 0 min 22 W/m 9,7 km/h (2 Bft) 97,87 %
23.11.2018 08:50 1,1 C 1,1 C 0,6 C 93 % 1016,8 hPa 0,0 l/m 0 min 0 min 24 W/m 9,7 km/h (2 Bft) 100,00 %
23.11.2018 08:52 1,1 C 1,1 C 0,6 C 93 % 1016,8 hPa 0,0 l/m 0 min 0 min 25 W/m 9,7 km/h (2 Bft) 100,00 %
23.11.2018 08:54 1,1 C 1,1 C 0,6 C 93 % 1016,8 hPa 0,0 l/m 0 min 0 min 25 W/m 6,4 km/h (2 Bft) 97,87 %
23.11.2018 08:56 1,1 C 1,1 C 0,6 C 93 % 1016,9 hPa 0,0 l/m 0 min 0 min 26 W/m 9,7 km/h (2 Bft) 93,62 %
23.11.2018 08:58 1,1 C 1,1 C 0,6 C 93 % 1016,9 hPa 0,0 l/m 0 min 0 min 28 W/m 9,7 km/h (2 Bft) 97,83 %
23.11.2018 09:00 1,1 C 1,1 C 0,6 C 93 % 1016,9 hPa 0,0 l/m 0 min 0 min 28 W/m 9,7 km/h (2 Bft) 97,87 %
23.11.2018 09:02 1,2 C 1,1 C 0,6 C 94 % 1016,9 hPa 0,0 l/m 0 min 0 min 30 W/m 9,7 km/h (2 Bft) 93,62 %
23.11.2018 09:04 1,2 C 1,1 C 0,6 C 94 % 1016,8 hPa 0,0 l/m 0 min 0 min 30 W/m 9,7 km/h (2 Bft) 97,87 %
23.11.2018 09:06 1,2 C 1,1 C 0,6 C 94 % 1016,8 hPa 0,0 l/m 0 min 0 min 33 W/m 16,1 km/h (3 Bft) 95,74 %
23.11.2018 09:08 1,2 C 1,1 C 0,6 C 94 % 1016,8 hPa 0,0 l/m 0 min 0 min 37 W/m 12,9 km/h (3 Bft) 95,83 %
23.11.2018 09:10 1,2 C 1,7 C 0,6 C 94 % 1016,8 hPa 0,0 l/m 0 min 0 min 41 W/m 12,9 km/h (3 Bft) 95,65 %
23.11.2018 09:12 1,3 C 1,7 C 0,6 C 93 % 1016,8 hPa 0,0 l/m 0 min 0 min 45 W/m 12,9 km/h (3 Bft) 95,74 %
23.11.2018 09:14 1,3 C 2,2 C 0,6 C 93 % 1016,8 hPa 0,0 l/m 2 min 0 min 84 W/m 16,1 km/h (3 Bft) 97,87 %
23.11.2018 09:16 1,3 C 3,3 C 0,6 C 93 % 1016,8 hPa 0,0 l/m 2 min 0 min 100 W/m 16,1 km/h (3 Bft) 95,74 %
23.11.2018 09:18 1,3 C 3,9 C 0,6 C 93 % 1016,8 hPa 0,0 l/m 2 min 0 min 103 W/m 9,7 km/h (2 Bft) 95,74 %
23.11.2018 09:20 1,4 C 3,9 C 0,6 C 93 % 1016,9 hPa 0,0 l/m 2 min 0 min 107 W/m 9,7 km/h (2 Bft) 95,74 %
23.11.2018 09:22 1,4 C 4,4 C 0,6 C 94 % 1017,0 hPa 0,0 l/m 2 min 0 min 110 W/m 6,4 km/h (2 Bft) 93,48 %
23.11.2018 09:24 1,5 C 5,0 C 0,6 C 93 % 1016,9 hPa 0,0 l/m 2 min 0 min 114 W/m 9,7 km/h (2 Bft) 95,74 %
23.11.2018 09:26 1,6 C 5,0 C 1,1 C 94 % 1016,8 hPa 0,0 l/m 2 min 0 min 114 W/m 9,7 km/h (2 Bft) 97,87 %
23.11.2018 09:28 1,7 C 5,0 C 1,1 C 94 % 1016,8 hPa 0,0 l/m 2 min 0 min 123 W/m 6,4 km/h (2 Bft) 97,87 %
23.11.2018 09:30 1,7 C 4,4 C 1,1 C 94 % 1016,7 hPa 0,0 l/m 2 min 0 min 128 W/m 9,7 km/h (2 Bft) 97,87 %
23.11.2018 09:32 1,8 C 4,4 C 1,1 C 94 % 1016,7 hPa 0,0 l/m 2 min 0 min 132 W/m 12,9 km/h (3 Bft) 95,65 %
23.11.2018 09:34 1,9 C 4,4 C 1,1 C 94 % 1016,7 hPa 0,0 l/m 2 min 0 min 136 W/m 16,1 km/h (3 Bft) 95,74 %
23.11.2018 09:36 1,9 C 3,9 C 1,1 C 94 % 1016,7 hPa 0,0 l/m 2 min 0 min 140 W/m 16,1 km/h (3 Bft) 91,49 %
23.11.2018 09:38 2,1 C 3,3 C 1,1 C 93 % 1016,8 hPa 0,0 l/m 2 min 0 min 143 W/m 12,9 km/h (3 Bft) 95,74 %
23.11.2018 09:40 2,1 C 2,8 C 1,1 C 93 % 1016,8 hPa 0,0 l/m 2 min 0 min 142 W/m 9,7 km/h (2 Bft) 95,74 %
23.11.2018 09:42 2,2 C 2,8 C 1,1 C 93 % 1016,8 hPa 0,0 l/m 2 min 0 min 120 W/m 9,7 km/h (2 Bft) 97,87 %
23.11.2018 09:44 2,2 C 2,8 C 1,7 C 93 % 1016,8 hPa 0,0 l/m 0 min 0 min 62 W/m 12,9 km/h (3 Bft) 97,83 %
23.11.2018 09:46 2,2 C 2,8 C 1,7 C 93 % 1016,8 hPa 0,0 l/m 0 min 0 min 54 W/m 12,9 km/h (3 Bft) 95,74 %
23.11.2018 09:48 2,3 C 2,8 C 1,7 C 93 % 1016,8 hPa 0,0 l/m 0 min 0 min 55 W/m 16,1 km/h (3 Bft) 95,74 %
23.11.2018 09:50 2,3 C 2,8 C 1,7 C 93 % 1016,8 hPa 0,0 l/m 0 min 0 min 54 W/m 12,9 km/h (3 Bft) 97,87 %
23.11.2018 09:52 2,4 C 2,8 C 1,7 C 93 % 1016,8 hPa 0,0 l/m 0 min 0 min 54 W/m 12,9 km/h (3 Bft) 97,87 %
23.11.2018 09:54 2,4 C 3,3 C 1,7 C 93 % 1016,8 hPa 0,0 l/m 0 min 0 min 70 W/m 16,1 km/h (3 Bft) 97,87 %
23.11.2018 09:56 2,4 C 4,4 C 1,7 C 93 % 1016,8 hPa 0,0 l/m 2 min 0 min 145 W/m 12,9 km/h (3 Bft) 97,83 %
23.11.2018 09:58 2,4 C 4,4 C 1,7 C 92 % 1016,8 hPa 0,0 l/m 2 min 0 min 123 W/m 12,9 km/h (3 Bft) 93,62 %
23.11.2018 10:00 2,5 C 3,9 C 1,7 C 92 % 1016,8 hPa 0,0 l/m 2 min 0 min 131 W/m 16,1 km/h (3 Bft) 93,62 %
23.11.2018 10:02 2,6 C 4,4 C 1,7 C 92 % 1016,8 hPa 0,0 l/m 2 min 0 min 164 W/m 9,7 km/h (2 Bft) 95,74 %
23.11.2018 10:04 2,6 C 5,6 C 1,7 C 92 % 1016,7 hPa 0,0 l/m 2 min 0 min 179 W/m 22,5 km/h (4 Bft) 95,74 %
23.11.2018 10:06 2,7 C 6,1 C 1,7 C 92 % 1016,6 hPa 0,0 l/m 2 min 0 min 191 W/m 16,1 km/h (3 Bft) 93,62 %
23.11.2018 10:08 2,8 C 6,1 C 2,2 C 92 % 1016,6 hPa 0,0 l/m 2 min 0 min 201 W/m 25,7 km/h (4 Bft) 95,65 %
23.11.2018 10:10 2,8 C 6,1 C 2,2 C 92 % 1016,7 hPa 0,0 l/m 2 min 0 min 206 W/m 12,9 km/h (3 Bft) 95,74 %
23.11.2018 10:12 2,9 C 6,7 C 2,2 C 92 % 1016,7 hPa 0,0 l/m 2 min 0 min 215 W/m 25,7 km/h (4 Bft) 95,74 %
23.11.2018 10:14 3,0 C 7,2 C 2,2 C 92 % 1016,7 hPa 0,0 l/m 2 min 0 min 226 W/m 12,9 km/h (3 Bft) 95,74 %
23.11.2018 10:16 3,1 C 6,1 C 2,2 C 91 % 1016,7 hPa 0,0 l/m 2 min 0 min 210 W/m 9,7 km/h (2 Bft) 93,62 %
23.11.2018 10:18 3,2 C 5,0 C 2,2 C 91 % 1016,7 hPa 0,0 l/m 0 min 0 min 83 W/m 12,9 km/h (3 Bft) 95,65 %
23.11.2018 10:20 3,3 C 4,4 C 2,2 C 91 % 1016,7 hPa 0,0 l/m 0 min 0 min 90 W/m 16,1 km/h (3 Bft) 95,74 %
23.11.2018 10:22 3,3 C 4,4 C 2,2 C 91 % 1016,8 hPa 0,0 l/m 0 min 0 min 84 W/m 16,1 km/h (3 Bft) 95,74 %
23.11.2018 10:24 3,4 C 4,4 C 2,2 C 90 % 1016,7 hPa 0,0 l/m 0 min 0 min 98 W/m 9,7 km/h (2 Bft) 93,62 %
23.11.2018 10:26 3,4 C 5,0 C 2,2 C 90 % 1016,6 hPa 0,0 l/m 2 min 0 min 146 W/m 9,7 km/h (2 Bft) 95,74 %
23.11.2018 10:28 3,4 C 5,6 C 2,8 C 90 % 1016,6 hPa 0,0 l/m 2 min 0 min 200 W/m 9,7 km/h (2 Bft) 95,74 %
23.11.2018 10:30 3,5 C 5,6 C 2,8 C 90 % 1016,6 hPa 0,0 l/m 2 min 0 min 176 W/m 16,1 km/h (3 Bft) 93,48 %
23.11.2018 10:32 3,6 C 5,0 C 2,8 C 89 % 1016,6 hPa 0,0 l/m 2 min 0 min 162 W/m 16,1 km/h (3 Bft) 95,74 %
23.11.2018 10:34 3,6 C 5,0 C 2,8 C 90 % 1016,6 hPa 0,0 l/m 0 min 0 min 120 W/m 12,9 km/h (3 Bft) 95,74 %
23.11.2018 10:36 3,7 C 4,4 C 2,8 C 89 % 1016,5 hPa 0,0 l/m 0 min 0 min 116 W/m 9,7 km/h (2 Bft) 97,87 %
23.11.2018 10:38 3,7 C 4,4 C 2,8 C 89 % 1016,5 hPa 0,0 l/m 0 min 0 min 111 W/m 12,9 km/h (3 Bft) 91,67 %
23.11.2018 10:40 3,7 C 4,4 C 2,8 C 89 % 1016,5 hPa 0,0 l/m 0 min 0 min 112 W/m 12,9 km/h (3 Bft) 95,74 %
23.11.2018 10:42 3,7 C 5,0 C 3,3 C 89 % 1016,5 hPa 0,0 l/m 0 min 0 min 116 W/m 12,9 km/h (3 Bft) 97,83 %
23.11.2018 10:44 3,8 C 5,0 C 3,3 C 89 % 1016,5 hPa 0,0 l/m 0 min 0 min 121 W/m 9,7 km/h (2 Bft) 97,87 %
23.11.2018 10:46 3,8 C 5,0 C 3,3 C 89 % 1016,4 hPa 0,0 l/m 2 min 0 min 140 W/m 12,9 km/h (3 Bft) 97,87 %
23.11.2018 10:48 3,8 C 5,0 C 3,3 C 88 % 1016,4 hPa 0,0 l/m 2 min 0 min 150 W/m 9,7 km/h (2 Bft) 97,87 %
23.11.2018 10:50 3,9 C 5,0 C 3,3 C 88 % 1016,4 hPa 0,0 l/m 0 min 0 min 131 W/m 12,9 km/h (3 Bft) 97,87 %
23.11.2018 10:52 3,9 C 5,0 C 3,3 C 88 % 1016,4 hPa 0,0 l/m 0 min 0 min 127 W/m 12,9 km/h (3 Bft) 95,74 %
23.11.2018 10:54 4,0 C 5,0 C 3,9 C 88 % 1016,4 hPa 0,0 l/m 0 min 0 min 129 W/m 16,1 km/h (3 Bft) 93,48 %
23.11.2018 10:56 4,0 C 5,0 C 3,9 C 88 % 1016,4 hPa 0,0 l/m 0 min 0 min 131 W/m 16,1 km/h (3 Bft) 97,87 %
23.11.2018 10:58 4,1 C 5,0 C 3,9 C 88 % 1016,4 hPa 0,0 l/m 0 min 0 min 122 W/m 16,1 km/h (3 Bft) 97,87 %
23.11.2018 11:00 4,1 C 5,0 C 3,9 C 88 % 1016,4 hPa 0,0 l/m 0 min 0 min 113 W/m 9,7 km/h (2 Bft) 97,87 %
23.11.2018 11:02 4,2 C 5,0 C 3,9 C 88 % 1016,4 hPa 0,0 l/m 0 min 0 min 106 W/m 16,1 km/h (3 Bft) 100,00 %
23.11.2018 11:04 4,2 C 5,0 C 3,9 C 88 % 1016,4 hPa 0,0 l/m 0 min 0 min 106 W/m 9,7 km/h (2 Bft) 100,00 %
23.11.2018 11:06 4,3 C 5,0 C 3,9 C 88 % 1016,4 hPa 0,0 l/m 0 min 0 min 106 W/m 9,7 km/h (2 Bft) 100,00 %
23.11.2018 11:08 4,3 C 5,0 C 3,9 C 88 % 1016,3 hPa 0,0 l/m 0 min 0 min 110 W/m 19,3 km/h (3 Bft) 100,00 %
23.11.2018 11:10 4,4 C 5,0 C 3,9 C 88 % 1016,3 hPa 0,0 l/m 0 min 0 min 117 W/m 9,7 km/h (2 Bft) 100,00 %
23.11.2018 11:12 4,4 C 5,0 C 3,9 C 88 % 1016,3 hPa 0,0 l/m 0 min 0 min 122 W/m 9,7 km/h (2 Bft) 100,00 %
23.11.2018 11:14 4,4 C 5,6 C 4,4 C 88 % 1016,3 hPa 0,0 l/m 0 min 0 min 123 W/m 12,9 km/h (3 Bft) 100,00 %
23.11.2018 11:16 4,5 C 5,6 C 4,4 C 88 % 1016,3 hPa 0,0 l/m 0 min 0 min 122 W/m 12,9 km/h (3 Bft) 100,00 %
23.11.2018 11:18 4,5 C 5,6 C 4,4 C 87 % 1016,4 hPa 0,0 l/m 0 min 0 min 121 W/m 9,7 km/h (2 Bft) 100,00 %
23.11.2018 11:20 4,6 C 5,6 C 4,4 C 87 % 1016,3 hPa 0,0 l/m 0 min 0 min 120 W/m 9,7 km/h (2 Bft) 97,87 %
23.11.2018 11:22 4,6 C 5,6 C 4,4 C 87 % 1016,3 hPa 0,0 l/m 0 min 0 min 121 W/m 6,4 km/h (2 Bft) 97,87 %
23.11.2018 11:24 4,7 C 5,6 C 4,4 C 87 % 1016,3 hPa 0,0 l/m 0 min 0 min 125 W/m 9,7 km/h (2 Bft) 97,87 %
23.11.2018 11:26 4,7 C 5,6 C 4,4 C 87 % 1016,3 hPa 0,0 l/m 0 min 0 min 129 W/m 16,1 km/h (3 Bft) 97,87 %
23.11.2018 11:28 4,7 C 5,6 C 4,4 C 87 % 1016,2 hPa 0,0 l/m 0 min 0 min 133 W/m 19,3 km/h (3 Bft) 97,83 %
23.11.2018 11:30 4,8 C 5,6 C 4,4 C 87 % 1016,2 hPa 0,0 l/m 0 min 0 min 135 W/m 16,1 km/h (3 Bft) 95,74 %
23.11.2018 11:32 4,8 C 5,6 C 4,4 C 87 % 1016,2 hPa 0,0 l/m 0 min 0 min 138 W/m 9,7 km/h (2 Bft) 97,87 %
23.11.2018 11:34 4,9 C 6,1 C 5,0 C 87 % 1016,1 hPa 0,0 l/m 0 min 0 min 145 W/m 9,7 km/h (2 Bft) 97,87 %
23.11.2018 11:36 4,9 C 6,1 C 5,0 C 87 % 1016,1 hPa 0,0 l/m 2 min 0 min 154 W/m 6,4 km/h (2 Bft) 95,74 %
23.11.2018 11:38 5,0 C 6,1 C 5,0 C 87 % 1016,1 hPa 0,0 l/m 2 min 0 min 164 W/m 9,7 km/h (2 Bft) 97,92 %
23.11.2018 11:40 5,1 C 6,1 C 5,0 C 87 % 1016,1 hPa 0,0 l/m 2 min 0 min 166 W/m 12,9 km/h (3 Bft) 97,83 %
23.11.2018 11:42 5,1 C 6,1 C 5,0 C 87 % 1016,1 hPa 0,0 l/m 2 min 0 min 163 W/m 16,1 km/h (3 Bft) 97,87 %
23.11.2018 11:44 5,2 C 6,1 C 5,0 C 87 % 1016,0 hPa 0,0 l/m 2 min 0 min 158 W/m 12,9 km/h (3 Bft) 97,87 %
23.11.2018 11:46 5,2 C 6,1 C 5,0 C 87 % 1016,0 hPa 0,0 l/m 2 min 0 min 156 W/m 16,1 km/h (3 Bft) 97,87 %
23.11.2018 11:48 5,3 C 6,7 C 5,6 C 87 % 1015,9 hPa 0,0 l/m 2 min 0 min 156 W/m 16,1 km/h (3 Bft) 97,87 %
23.11.2018 11:50 5,3 C 6,1 C 5,0 C 87 % 1015,9 hPa 0,0 l/m 0 min 0 min 155 W/m 12,9 km/h (3 Bft) 97,22 %
23.11.2018 11:52 5,4 C 6,7 C 5,0 C 86 % 1015,9 hPa 0,0 l/m 0 min 0 min 153 W/m 9,7 km/h (2 Bft) 95,74 %
23.11.2018 11:54 5,4 C 6,7 C 5,6 C 86 % 1016,0 hPa 0,0 l/m 0 min 0 min 153 W/m 9,7 km/h (2 Bft) 97,87 %
23.11.2018 11:56 5,4 C 6,7 C 5,6 C 86 % 1015,9 hPa 0,0 l/m 0 min 0 min 153 W/m 12,9 km/h (3 Bft) 97,87 %
23.11.2018 11:58 5,5 C 6,7 C 5,6 C 86 % 1015,8 hPa 0,0 l/m 0 min 0 min 156 W/m 9,7 km/h (2 Bft) 95,74 %
23.11.2018 12:00 5,6 C 6,7 C 5,6 C 85 % 1015,8 hPa 0,0 l/m 2 min 0 min 160 W/m 9,7 km/h (2 Bft) 95,74 %
23.11.2018 12:02 5,6 C 6,7 C 5,6 C 85 % 1015,8 hPa 0,0 l/m 2 min 0 min 168 W/m 9,7 km/h (2 Bft) 97,83 %
23.11.2018 12:04 5,7 C 7,2 C 5,6 C 85 % 1015,8 hPa 0,0 l/m 2 min 0 min 185 W/m 12,9 km/h (3 Bft) 97,87 %
23.11.2018 12:08 5,8 C 7,8 C 6,1 C 85 % 1015,7 hPa 0,0 l/m 4 min 0 min 209 W/m 6,4 km/h (2 Bft) 98,94 %
23.11.2018 12:10 5,9 C 8,3 C 6,1 C 85 % 1015,7 hPa 0,0 l/m 2 min 0 min 198 W/m 6,4 km/h (2 Bft) 97,87 %
23.11.2018 12:12 5,9 C 7,8 C 6,1 C 85 % 1015,7 hPa 0,0 l/m 2 min 0 min 182 W/m 6,4 km/h (2 Bft) 97,87 %
23.11.2018 12:14 6,0 C 8,3 C 6,1 C 85 % 1015,6 hPa 0,0 l/m 2 min 0 min 170 W/m 6,4 km/h (2 Bft) 97,83 %
23.11.2018 12:16 6,1 C 7,8 C 6,1 C 85 % 1015,6 hPa 0,0 l/m 2 min 0 min 163 W/m 6,4 km/h (2 Bft) 95,74 %
23.11.2018 12:18 6,1 C 8,3 C 6,1 C 85 % 1015,7 hPa 0,0 l/m 2 min 0 min 182 W/m 9,7 km/h (2 Bft) 97,87 %
23.11.2018 12:20 6,2 C 9,4 C 6,1 C 85 % 1015,6 hPa 0,0 l/m 2 min 0 min 210 W/m 9,7 km/h (2 Bft) 95,74 %
23.11.2018 12:22 6,3 C 11,1 C 5,6 C 85 % 1015,6 hPa 0,0 l/m 2 min 0 min 335 W/m 9,7 km/h (2 Bft) 97,87 %
23.11.2018 12:24 6,4 C 11,7 C 5,6 C 84 % 1015,6 hPa 0,0 l/m 2 min 0 min 350 W/m 6,4 km/h (2 Bft) 97,83 %
23.11.2018 12:26 6,4 C 12,2 C 5,6 C 84 % 1015,5 hPa 0,0 l/m 2 min 0 min 335 W/m 6,4 km/h (2 Bft) 95,74 %
23.11.2018 12:28 6,6 C 12,8 C 5,6 C 84 % 1015,5 hPa 0,0 l/m 2 min 0 min 329 W/m 9,7 km/h (2 Bft) 97,87 %
23.11.2018 12:30 6,7 C 11,7 C 5,6 C 84 % 1015,5 hPa 0,0 l/m 2 min 0 min 326 W/m 9,7 km/h (2 Bft) 97,87 %
23.11.2018 12:32 6,8 C 12,2 C 5,6 C 83 % 1015,5 hPa 0,0 l/m 2 min 0 min 324 W/m 9,7 km/h (2 Bft) 97,87 %
23.11.2018 12:34 6,9 C 12,8 C 5,6 C 83 % 1015,4 hPa 0,0 l/m 2 min 0 min 324 W/m 12,9 km/h (3 Bft) 95,74 %
23.11.2018 12:36 7,1 C 12,8 C 5,6 C 83 % 1015,4 hPa 0,0 l/m 2 min 0 min 326 W/m 9,7 km/h (2 Bft) 96,55 %
23.11.2018 12:38 7,2 C 12,2 C 5,6 C 82 % 1015,4 hPa 0,0 l/m 2 min 0 min 324 W/m 16,1 km/h (3 Bft) 95,74 %
23.11.2018 12:40 7,3 C 12,8 C 5,6 C 82 % 1015,3 hPa 0,0 l/m 2 min 0 min 322 W/m 12,9 km/h (3 Bft) 97,14 %
23.11.2018 12:42 7,4 C 12,2 C 5,6 C 81 % 1015,3 hPa 0,0 l/m 2 min 0 min 323 W/m 16,1 km/h (3 Bft) 97,87 %
23.11.2018 12:44 7,5 C 12,8 C 5,6 C 81 % 1015,3 hPa 0,0 l/m 2 min 0 min 322 W/m 9,7 km/h (2 Bft) 97,87 %
23.11.2018 12:46 7,6 C 13,3 C 6,1 C 81 % 1015,3 hPa 0,0 l/m 2 min 0 min 322 W/m 6,4 km/h (2 Bft) 97,87 %
23.11.2018 12:48 7,7 C 13,3 C 6,1 C 80 % 1015,2 hPa 0,0 l/m 2 min 0 min 321 W/m 9,7 km/h (2 Bft) 100,00 %
23.11.2018 12:50 7,8 C 13,3 C 6,1 C 80 % 1015,2 hPa 0,0 l/m 2 min 0 min 317 W/m 6,4 km/h (2 Bft) 97,87 %
23.11.2018 12:52 7,9 C 13,3 C 6,1 C 80 % 1015,2 hPa 0,0 l/m 2 min 0 min 319 W/m 9,7 km/h (2 Bft) 93,62 %
23.11.2018 12:54 8,0 C 13,3 C 6,1 C 79 % 1015,1 hPa 0,0 l/m 2 min 0 min 321 W/m 9,7 km/h (2 Bft) 97,87 %
23.11.2018 12:56 8,1 C 12,8 C 6,1 C 79 % 1015,1 hPa 0,0 l/m 2 min 0 min 321 W/m 12,9 km/h (3 Bft) 100,00 %
23.11.2018 12:58 8,2 C 13,3 C 6,7 C 79 % 1015,0 hPa 0,0 l/m 2 min 0 min 321 W/m 9,7 km/h (2 Bft) 100,00 %
23.11.2018 13:00 8,2 C 12,8 C 6,7 C 78 % 1015,1 hPa 0,0 l/m 2 min 0 min 317 W/m 16,1 km/h (3 Bft) 100,00 %
23.11.2018 13:02 8,3 C 12,8 C 6,7 C 78 % 1015,1 hPa 0,0 l/m 2 min 0 min 317 W/m 12,9 km/h (3 Bft) 100,00 %
23.11.2018 13:04 8,4 C 12,8 C 6,7 C 77 % 1015,0 hPa 0,0 l/m 2 min 0 min 316 W/m 12,9 km/h (3 Bft) 100,00 %
23.11.2018 13:06 8,5 C 12,8 C 6,7 C 77 % 1015,0 hPa 0,0 l/m 2 min 0 min 315 W/m 12,9 km/h (3 Bft) 100,00 %
23.11.2018 13:08 8,6 C 13,3 C 6,7 C 77 % 1015,0 hPa 0,0 l/m 2 min 0 min 315 W/m 12,9 km/h (3 Bft) 97,83 %
23.11.2018 13:10 8,6 C 13,3 C 6,7 C 77 % 1015,0 hPa 0,0 l/m 2 min 0 min 313 W/m 12,9 km/h (3 Bft) 100,00 %
23.11.2018 13:12 8,7 C 13,3 C 6,7 C 77 % 1015,0 hPa 0,0 l/m 2 min 0 min 310 W/m 9,7 km/h (2 Bft) 100,00 %
23.11.2018 13:14 8,7 C 13,3 C 6,7 C 77 % 1015,0 hPa 0,0 l/m 2 min 0 min 310 W/m 12,9 km/h (3 Bft) 100,00 %
23.11.2018 13:16 8,8 C 13,3 C 6,7 C 76 % 1015,0 hPa 0,0 l/m 2 min 0 min 309 W/m 16,1 km/h (3 Bft) 100,00 %
23.11.2018 13:18 8,8 C 13,9 C 7,2 C 76 % 1015,0 hPa 0,0 l/m 2 min 0 min 308 W/m 9,7 km/h (2 Bft) 100,00 %
23.11.2018 13:20 8,9 C 13,9 C 7,2 C 76 % 1015,0 hPa 0,0 l/m 2 min 0 min 305 W/m 6,4 km/h (2 Bft) 98,21 %
23.11.2018 13:22 9,0 C 13,9 C 7,2 C 76 % 1015,0 hPa 0,0 l/m 2 min 0 min 302 W/m 9,7 km/h (2 Bft) 97,87 %
23.11.2018 13:24 9,0 C 13,9 C 7,2 C 76 % 1014,9 hPa 0,0 l/m 2 min 0 min 299 W/m 9,7 km/h (2 Bft) 97,87 %
23.11.2018 13:26 9,1 C 13,9 C 7,2 C 76 % 1014,9 hPa 0,0 l/m 2 min 0 min 296 W/m 6,4 km/h (2 Bft) 100,00 %
23.11.2018 13:28 9,1 C 13,3 C 7,2 C 76 % 1014,9 hPa 0,0 l/m 2 min 0 min 295 W/m 12,9 km/h (3 Bft) 97,87 %
23.11.2018 13:30 9,1 C 13,3 C 7,2 C 75 % 1014,9 hPa 0,0 l/m 2 min 0 min 293 W/m 9,7 km/h (2 Bft) 97,87 %
23.11.2018 13:32 9,2 C 13,9 C 7,2 C 75 % 1014,9 hPa 0,0 l/m 2 min 0 min 291 W/m 9,7 km/h (2 Bft) 95,74 %
23.11.2018 13:34 9,2 C 13,3 C 7,2 C 75 % 1014,9 hPa 0,0 l/m 2 min 0 min 291 W/m 12,9 km/h (3 Bft) 100,00 %
23.11.2018 13:36 9,2 C 13,3 C 7,2 C 75 % 1014,9 hPa 0,0 l/m 2 min 0 min 289 W/m 9,7 km/h (2 Bft) 97,87 %
23.11.2018 13:38 9,3 C 13,3 C 7,2 C 75 % 1014,9 hPa 0,0 l/m 2 min 0 min 288 W/m 12,9 km/h (3 Bft) 100,00 %
23.11.2018 13:40 9,3 C 13,3 C 7,2 C 75 % 1014,8 hPa 0,0 l/m 2 min 0 min 287 W/m 9,7 km/h (2 Bft) 95,74 %
23.11.2018 13:42 9,4 C 13,3 C 7,2 C 75 % 1014,8 hPa 0,0 l/m 2 min 0 min 285 W/m 9,7 km/h (2 Bft) 97,87 %
23.11.2018 13:44 9,4 C 12,8 C 7,2 C 74 % 1014,8 hPa 0,0 l/m 2 min 0 min 282 W/m 12,9 km/h (3 Bft) 100,00 %
23.11.2018 13:46 9,4 C 12,8 C 7,2 C 74 % 1014,7 hPa 0,0 l/m 2 min 0 min 279 W/m 12,9 km/h (3 Bft) 97,87 %
23.11.2018 13:48 9,4 C 12,8 C 7,2 C 74 % 1014,7 hPa 0,0 l/m 2 min 0 min 279 W/m 12,9 km/h (3 Bft) 97,87 %
23.11.2018 13:50 9,4 C 12,8 C 7,2 C 74 % 1014,6 hPa 0,0 l/m 2 min 0 min 277 W/m 12,9 km/h (3 Bft) 93,48 %
23.11.2018 13:52 9,4 C 13,3 C 7,2 C 74 % 1014,7 hPa 0,0 l/m 2 min 0 min 273 W/m 9,7 km/h (2 Bft) 95,74 %
23.11.2018 13:54 9,4 C 13,3 C 7,2 C 74 % 1014,7 hPa 0,0 l/m 2 min 0 min 271 W/m 9,7 km/h (2 Bft) 91,49 %
23.11.2018 13:56 9,4 C 12,8 C 7,2 C 74 % 1014,6 hPa 0,0 l/m 2 min 0 min 270 W/m 12,9 km/h (3 Bft) 93,62 %
23.11.2018 13:58 9,4 C 12,8 C 7,2 C 74 % 1014,7 hPa 0,0 l/m 2 min 0 min 266 W/m 12,9 km/h (3 Bft) 95,74 %
23.11.2018 14:00 9,4 C 13,3 C 7,2 C 74 % 1014,6 hPa 0,0 l/m 2 min 0 min 264 W/m 9,7 km/h (2 Bft) 95,74 %
23.11.2018 14:02 9,5 C 13,3 C 7,2 C 74 % 1014,6 hPa 0,0 l/m 2 min 0 min 260 W/m 9,7 km/h (2 Bft) 95,65 %
23.11.2018 14:04 9,5 C 13,9 C 7,2 C 74 % 1014,5 hPa 0,0 l/m 2 min 0 min 257 W/m 9,7 km/h (2 Bft) 95,74 %
23.11.2018 14:06 9,5 C 13,3 C 7,2 C 74 % 1014,5 hPa 0,0 l/m 2 min 0 min 256 W/m 9,7 km/h (2 Bft) 95,74 %
23.11.2018 14:08 9,6 C 13,3 C 7,2 C 74 % 1014,4 hPa 0,0 l/m 2 min 0 min 251 W/m 6,4 km/h (2 Bft) 91,49 %
23.11.2018 14:10 9,6 C 12,8 C 7,2 C 74 % 1014,4 hPa 0,0 l/m 2 min 0 min 251 W/m 9,7 km/h (2 Bft) 95,74 %
23.11.2018 14:12 9,6 C 12,8 C 7,2 C 74 % 1014,4 hPa 0,0 l/m 2 min 0 min 248 W/m 12,9 km/h (3 Bft) 95,74 %
23.11.2018 14:14 9,6 C 12,8 C 7,2 C 74 % 1014,4 hPa 0,0 l/m 2 min 0 min 245 W/m 9,7 km/h (2 Bft) 95,65 %
23.11.2018 14:16 9,6 C 13,3 C 7,2 C 74 % 1014,5 hPa 0,0 l/m 2 min 0 min 243 W/m 6,4 km/h (2 Bft) 95,74 %
23.11.2018 14:18 9,6 C 14,4 C 7,2 C 74 % 1014,4 hPa 0,0 l/m 2 min 0 min 240 W/m 6,4 km/h (2 Bft) 95,74 %
23.11.2018 14:20 9,6 C 13,9 C 6,7 C 74 % 1014,4 hPa 0,0 l/m 2 min 0 min 237 W/m 6,4 km/h (2 Bft) 95,83 %
23.11.2018 14:22 9,6 C 13,9 C 6,7 C 74 % 1014,4 hPa 0,0 l/m 2 min 0 min 234 W/m 6,4 km/h (2 Bft) 95,74 %
23.11.2018 14:24 9,7 C 13,3 C 6,7 C 74 % 1014,3 hPa 0,0 l/m 2 min 0 min 230 W/m 9,7 km/h (2 Bft) 95,65 %
23.11.2018 14:26 9,7 C 13,3 C 6,7 C 74 % 1014,2 hPa 0,0 l/m 2 min 0 min 227 W/m 9,7 km/h (2 Bft) 93,62 %
23.11.2018 14:28 9,7 C 13,9 C 6,7 C 74 % 1014,2 hPa 0,0 l/m 2 min 0 min 224 W/m 6,4 km/h (2 Bft) 95,74 %
23.11.2018 14:30 9,7 C 13,9 C 6,7 C 74 % 1014,2 hPa 0,0 l/m 2 min 0 min 220 W/m 6,4 km/h (2 Bft) 97,87 %
23.11.2018 14:32 9,7 C 13,3 C 6,7 C 74 % 1014,2 hPa 0,0 l/m 2 min 0 min 217 W/m 9,7 km/h (2 Bft) 91,49 %
23.11.2018 14:34 9,6 C 12,8 C 6,7 C 74 % 1014,1 hPa 0,0 l/m 2 min 0 min 213 W/m 9,7 km/h (2 Bft) 93,62 %
23.11.2018 14:36 9,6 C 12,8 C 6,7 C 75 % 1014,0 hPa 0,0 l/m 2 min 0 min 209 W/m 9,7 km/h (2 Bft) 93,48 %
23.11.2018 14:38 9,6 C 12,2 C 6,7 C 74 % 1014,1 hPa 0,0 l/m 2 min 0 min 207 W/m 12,9 km/h (3 Bft) 97,87 %
23.11.2018 14:40 9,5 C 11,7 C 6,7 C 75 % 1014,0 hPa 0,0 l/m 2 min 0 min 202 W/m 6,4 km/h (2 Bft) 97,87 %
23.11.2018 14:42 9,5 C 10,6 C 6,7 C 75 % 1014,0 hPa 0,0 l/m 2 min 0 min 200 W/m 9,7 km/h (2 Bft) 95,74 %
23.11.2018 14:44 9,4 C 9,4 C 6,7 C 75 % 1014,0 hPa 0,0 l/m 2 min 0 min 189 W/m 9,7 km/h (2 Bft) 97,87 %
23.11.2018 14:46 9,4 C 8,9 C 6,7 C 75 % 1013,9 hPa 0,0 l/m 2 min 0 min 134 W/m 9,7 km/h (2 Bft) 95,74 %
23.11.2018 14:48 9,4 C 8,9 C 6,7 C 76 % 1014,0 hPa 0,0 l/m 2 min 0 min 104 W/m 9,7 km/h (2 Bft) 100,00 %
23.11.2018 14:50 9,4 C 8,9 C 6,7 C 76 % 1013,9 hPa 0,0 l/m 0 min 0 min 59 W/m 9,7 km/h (2 Bft) 97,87 %
23.11.2018 14:52 9,4 C 8,9 C 6,7 C 76 % 1013,9 hPa 0,0 l/m 0 min 0 min 44 W/m 9,7 km/h (2 Bft) 95,74 %
23.11.2018 14:54 9,3 C 8,9 C 7,2 C 76 % 1013,9 hPa 0,0 l/m 0 min 0 min 42 W/m 12,9 km/h (3 Bft) 97,87 %
23.11.2018 14:56 9,3 C 8,9 C 7,2 C 76 % 1013,9 hPa 0,0 l/m 0 min 0 min 42 W/m 12,9 km/h (3 Bft) 97,87 %
23.11.2018 14:58 9,3 C 8,9 C 6,7 C 76 % 1013,9 hPa 0,0 l/m 0 min 0 min 42 W/m 9,7 km/h (2 Bft) 97,87 %
23.11.2018 15:00 9,3 C 8,9 C 6,7 C 77 % 1013,9 hPa 0,0 l/m 0 min 0 min 40 W/m 9,7 km/h (2 Bft) 97,83 %
23.11.2018 15:02 9,3 C 8,9 C 6,7 C 77 % 1013,9 hPa 0,0 l/m 0 min 0 min 40 W/m 9,7 km/h (2 Bft) 97,87 %
23.11.2018 15:04 9,3 C 8,9 C 6,7 C 77 % 1013,8 hPa 0,0 l/m 0 min 0 min 39 W/m 9,7 km/h (2 Bft) 97,87 %
23.11.2018 15:06 9,3 C 8,9 C 6,7 C 77 % 1013,8 hPa 0,0 l/m 0 min 0 min 39 W/m 6,4 km/h (2 Bft) 95,74 %
23.11.2018 15:08 9,3 C 8,9 C 6,7 C 77 % 1013,7 hPa 0,0 l/m 0 min 0 min 37 W/m 9,7 km/h (2 Bft) 95,74 %
23.11.2018 15:10 9,2 C 8,9 C 6,7 C 77 % 1013,7 hPa 0,0 l/m 0 min 0 min 37 W/m 9,7 km/h (2 Bft) 95,74 %
23.11.2018 15:12 9,2 C 8,9 C 6,7 C 77 % 1013,7 hPa 0,0 l/m 0 min 0 min 37 W/m 9,7 km/h (2 Bft) 97,83 %
23.11.2018 15:14 9,2 C 8,9 C 6,7 C 77 % 1013,7 hPa 0,0 l/m 0 min 0 min 35 W/m 6,4 km/h (2 Bft) 95,74 %
23.11.2018 15:16 9,2 C 8,9 C 6,7 C 78 % 1013,7 hPa 0,0 l/m 0 min 0 min 35 W/m 6,4 km/h (2 Bft) 97,87 %
23.11.2018 15:18 9,2 C 8,3 C 6,7 C 78 % 1013,7 hPa 0,0 l/m 0 min 0 min 33 W/m 6,4 km/h (2 Bft) 100,00 %
23.11.2018 15:20 9,2 C 8,3 C 6,7 C 78 % 1013,6 hPa 0,0 l/m 0 min 0 min 33 W/m 6,4 km/h (2 Bft) 100,00 %
23.11.2018 15:22 9,2 C 8,3 C 6,1 C 78 % 1013,7 hPa 0,0 l/m 0 min 0 min 33 W/m 6,4 km/h (2 Bft) 100,00 %
23.11.2018 15:24 9,2 C 8,3 C 6,1 C 78 % 1013,6 hPa 0,0 l/m 0 min 0 min 32 W/m 6,4 km/h (2 Bft) 95,74 %
23.11.2018 15:26 9,2 C 8,9 C 6,1 C 78 % 1013,6 hPa 0,0 l/m 0 min 0 min 32 W/m 6,4 km/h (2 Bft) 93,62 %
23.11.2018 15:28 9,2 C 8,9 C 6,1 C 78 % 1013,5 hPa 0,0 l/m 0 min 0 min 31 W/m 6,4 km/h (2 Bft) 97,87 %
23.11.2018 15:30 9,2 C 8,9 C 6,1 C 78 % 1013,5 hPa 0,0 l/m 0 min 0 min 30 W/m 6,4 km/h (2 Bft) 100,00 %
23.11.2018 15:32 9,2 C 8,9 C 6,1 C 78 % 1013,6 hPa 0,0 l/m 0 min 0 min 30 W/m 6,4 km/h (2 Bft) 100,00 %
23.11.2018 15:34 9,1 C 8,9 C 6,1 C 78 % 1013,6 hPa 0,0 l/m 0 min 0 min 29 W/m 3,2 km/h (1 Bft) 95,65 %
23.11.2018 15:36 9,2 C 8,3 C 6,1 C 78 % 1013,5 hPa 0,0 l/m 0 min 0 min 28 W/m 3,2 km/h (1 Bft) 100,00 %
23.11.2018 15:38 9,1 C 8,3 C 6,1 C 78 % 1013,5 hPa 0,0 l/m 0 min 0 min 28 W/m 3,2 km/h (1 Bft) 100,00 %
23.11.2018 15:40 9,1 C 8,3 C 6,1 C 78 % 1013,5 hPa 0,0 l/m 0 min 0 min 26 W/m 3,2 km/h (1 Bft) 97,87 %
23.11.2018 15:42 9,1 C 7,8 C 5,6 C 78 % 1013,5 hPa 0,0 l/m 0 min 0 min 26 W/m 3,2 km/h (1 Bft) 100,00 %
23.11.2018 15:44 9,1 C 7,8 C 5,6 C 78 % 1013,5 hPa 0,0 l/m 0 min 0 min 26 W/m 3,2 km/h (1 Bft) 97,87 %
23.11.2018 15:46 9,0 C 7,8 C 5,6 C 78 % 1013,5 hPa 0,0 l/m 0 min 0 min 25 W/m 3,2 km/h (1 Bft) 100,00 %
23.11.2018 15:48 9,0 C 7,8 C 5,6 C 78 % 1013,5 hPa 0,0 l/m 0 min 0 min 24 W/m 3,2 km/h (1 Bft) 95,74 %
23.11.2018 15:50 9,0 C 7,2 C 5,6 C 78 % 1013,4 hPa 0,0 l/m 0 min 0 min 21 W/m 0,0 km/h (0 Bft) 100,00 %
23.11.2018 15:52 8,9 C 7,2 C 5,6 C 78 % 1013,6 hPa 0,0 l/m 0 min 0 min 20 W/m 0,0 km/h (0 Bft) 100,00 %
23.11.2018 15:54 8,9 C 7,2 C 5,0 C 78 % 1013,5 hPa 0,0 l/m 0 min 0 min 19 W/m 3,2 km/h (1 Bft) 100,00 %
23.11.2018 15:56 8,9 C 7,2 C 5,0 C 78 % 1013,5 hPa 0,0 l/m 0 min 0 min 18 W/m 3,2 km/h (1 Bft) 97,87 %
23.11.2018 15:58 8,8 C 7,2 C 5,0 C 78 % 1013,4 hPa 0,0 l/m 0 min 0 min 17 W/m 3,2 km/h (1 Bft) 97,83 %
23.11.2018 16:00 8,8 C 7,2 C 5,0 C 78 % 1013,4 hPa 0,0 l/m 0 min 0 min 16 W/m 3,2 km/h (1 Bft) 97,87 %
23.11.2018 16:02 8,7 C 7,2 C 5,0 C 79 % 1013,4 hPa 0,0 l/m 0 min 0 min 16 W/m 3,2 km/h (1 Bft) 97,87 %
23.11.2018 16:04 8,7 C 7,2 C 5,0 C 78 % 1013,5 hPa 0,0 l/m 0 min 0 min 16 W/m 3,2 km/h (1 Bft) 97,87 %
23.11.2018 16:06 8,7 C 6,7 C 5,0 C 79 % 1013,5 hPa 0,0 l/m 0 min 0 min 16 W/m 3,2 km/h (1 Bft) 97,87 %
23.11.2018 16:08 8,6 C 6,7 C 4,4 C 79 % 1013,4 hPa 0,0 l/m 0 min 0 min 15 W/m 6,4 km/h (2 Bft) 93,75 %
23.11.2018 16:10 8,5 C 6,7 C 4,4 C 79 % 1013,4 hPa 0,0 l/m 0 min 0 min 14 W/m 3,2 km/h (1 Bft) 97,83 %
23.11.2018 16:12 8,5 C 6,7 C 4,4 C 79 % 1013,4 hPa 0,0 l/m 0 min 0 min 14 W/m 0,0 km/h (0 Bft) 97,87 %
23.11.2018 16:14 8,4 C 6,1 C 4,4 C 79 % 1013,4 hPa 0,0 l/m 0 min 0 min 12 W/m 3,2 km/h (1 Bft) 97,87 %
23.11.2018 16:16 8,3 C 6,1 C 4,4 C 79 % 1013,4 hPa 0,0 l/m 0 min 0 min 12 W/m 3,2 km/h (1 Bft) 95,74 %
23.11.2018 16:18 8,3 C 6,1 C 4,4 C 79 % 1013,4 hPa 0,0 l/m 0 min 0 min 11 W/m 3,2 km/h (1 Bft) 97,87 %
23.11.2018 16:20 8,2 C 5,6 C 4,4 C 79 % 1013,4 hPa 0,0 l/m 0 min 0 min 10 W/m 0,0 km/h (0 Bft) 95,65 %
23.11.2018 16:22 8,2 C 5,6 C 4,4 C 79 % 1013,4 hPa 0,0 l/m 0 min 0 min 8 W/m 0,0 km/h (0 Bft) 100,00 %
23.11.2018 16:24 8,1 C 5,6 C 4,4 C 79 % 1013,4 hPa 0,0 l/m 0 min 0 min 7 W/m 0,0 km/h (0 Bft) 100,00 %
23.11.2018 16:26 8,0 C 5,6 C 3,9 C 79 % 1013,5 hPa 0,0 l/m 0 min 0 min 7 W/m 0,0 km/h (0 Bft) 100,00 %
23.11.2018 16:28 7,9 C 5,6 C 3,9 C 79 % 1013,4 hPa 0,0 l/m 0 min 0 min 5 W/m 3,2 km/h (1 Bft) 100,00 %
23.11.2018 16:30 7,8 C 5,0 C 3,9 C 80 % 1013,4 hPa 0,0 l/m 0 min 0 min 5 W/m 0,0 km/h (0 Bft) 100,00 %
23.11.2018 16:32 7,7 C 5,0 C 3,9 C 80 % 1013,4 hPa 0,0 l/m 0 min 0 min 5 W/m 0,0 km/h (0 Bft) 100,00 %
23.11.2018 16:34 7,6 C 5,0 C 3,9 C 80 % 1013,4 hPa 0,0 l/m 0 min 0 min 1 W/m 0,0 km/h (0 Bft) 100,00 %
23.11.2018 16:36 7,5 C 4,4 C 3,9 C 80 % 1013,4 hPa 0,0 l/m 0 min 0 min 0 W/m 0,0 km/h (0 Bft) 97,87 %
23.11.2018 16:38 7,4 C 4,4 C 3,9 C 80 % 1013,5 hPa 0,0 l/m 0 min 0 min 0 W/m 0,0 km/h (0 Bft) 100,00 %
23.11.2018 16:40 7,3 C 4,4 C 3,9 C 80 % 1013,4 hPa 0,0 l/m 0 min 0 min 0 W/m 0,0 km/h (0 Bft) 100,00 %
23.11.2018 16:42 7,2 C 4,4 C 3,3 C 81 % 1013,4 hPa 0,0 l/m 0 min 0 min 0 W/m 0,0 km/h (0 Bft) 100,00 %
23.11.2018 16:44 7,1 C 3,9 C 3,3 C 81 % 1013,3 hPa 0,0 l/m 0 min 0 min 0 W/m 0,0 km/h (0 Bft) 100,00 %
23.11.2018 16:46 7,0 C 3,9 C 3,3 C 81 % 1013,3 hPa 0,0 l/m 0 min 0 min 0 W/m 0,0 km/h (0 Bft) 100,00 %
23.11.2018 16:48 6,9 C 3,9 C 3,3 C 81 % 1013,3 hPa 0,0 l/m 0 min 0 min 0 W/m 3,2 km/h (1 Bft) 100,00 %
23.11.2018 16:50 6,8 C 3,9 C 3,3 C 82 % 1013,3 hPa 0,0 l/m 0 min 0 min 0 W/m 3,2 km/h (1 Bft) 100,00 %
23.11.2018 16:52 6,7 C 3,9 C 3,3 C 82 % 1013,3 hPa 0,0 l/m 0 min 0 min 0 W/m 3,2 km/h (1 Bft) 100,00 %
23.11.2018 16:54 6,7 C 3,9 C 3,3 C 82 % 1013,3 hPa 0,0 l/m 0 min 0 min 0 W/m 0,0 km/h (0 Bft) 100,00 %
23.11.2018 16:56 6,6 C 3,9 C 3,3 C 82 % 1013,3 hPa 0,0 l/m 0 min 0 min 0 W/m 0,0 km/h (0 Bft) 100,00 %
23.11.2018 16:58 6,5 C 3,9 C 3,3 C 82 % 1013,3 hPa 0,0 l/m 0 min 0 min 0 W/m 3,2 km/h (1 Bft) 100,00 %
23.11.2018 17:00 6,4 C 3,9 C 3,3 C 82 % 1013,3 hPa 0,0 l/m 0 min 0 min 0 W/m 3,2 km/h (1 Bft) 100,00 %
23.11.2018 17:02 6,4 C 3,9 C 3,3 C 83 % 1013,3 hPa 0,0 l/m 0 min 0 min 0 W/m 3,2 km/h (1 Bft) 100,00 %
23.11.2018 17:04 6,3 C 3,9 C 3,3 C 83 % 1013,3 hPa 0,0 l/m 0 min 0 min 0 W/m 0,0 km/h (0 Bft) 97,87 %
23.11.2018 17:06 6,2 C 3,3 C 2,8 C 83 % 1013,3 hPa 0,0 l/m 0 min 0 min 0 W/m 0,0 km/h (0 Bft) 97,87 %
23.11.2018 17:08 6,2 C 3,9 C 2,8 C 83 % 1013,4 hPa 0,0 l/m 0 min 0 min 0 W/m 0,0 km/h (0 Bft) 100,00 %
23.11.2018 17:10 6,1 C 3,9 C 2,8 C 83 % 1013,3 hPa 0,0 l/m 0 min 0 min 0 W/m 0,0 km/h (0 Bft) 100,00 %
23.11.2018 17:12 6,0 C 3,3 C 2,8 C 83 % 1013,3 hPa 0,0 l/m 0 min 0 min 0 W/m 0,0 km/h (0 Bft) 93,62 %
23.11.2018 17:14 5,9 C 3,3 C 2,8 C 83 % 1013,3 hPa 0,0 l/m 0 min 0 min 0 W/m 0,0 km/h (0 Bft) 97,87 %
23.11.2018 17:16 5,8 C 3,3 C 2,8 C 83 % 1013,3 hPa 0,0 l/m 0 min 0 min 0 W/m 0,0 km/h (0 Bft) 97,87 %
23.11.2018 17:18 5,8 C 3,3 C 2,8 C 83 % 1013,3 hPa 0,0 l/m 0 min 0 min 0 W/m 0,0 km/h (0 Bft) 97,83 %
23.11.2018 17:20 5,7 C 3,3 C 2,8 C 84 % 1013,3 hPa 0,0 l/m 0 min 0 min 0 W/m 0,0 km/h (0 Bft) 95,74 %
23.11.2018 17:22 5,6 C 3,3 C 2,8 C 84 % 1013,3 hPa 0,0 l/m 0 min 0 min 0 W/m 0,0 km/h (0 Bft) 95,74 %
23.11.2018 17:24 5,6 C 3,3 C 2,8 C 84 % 1013,3 hPa 0,0 l/m 0 min 0 min 0 W/m 0,0 km/h (0 Bft) 95,74 %
23.11.2018 17:26 5,4 C 3,3 C 2,8 C 84 % 1013,3 hPa 0,0 l/m 0 min 0 min 0 W/m 0,0 km/h (0 Bft) 97,87 %
23.11.2018 17:28 5,4 C 3,3 C 2,8 C 84 % 1013,3 hPa 0,0 l/m 0 min 0 min 0 W/m 0,0 km/h (0 Bft) 93,62 %
23.11.2018 17:30 5,3 C 2,8 C 2,2 C 84 % 1013,3 hPa 0,0 l/m 0 min 0 min 0 W/m 0,0 km/h (0 Bft) 93,48 %
23.11.2018 17:32 5,3 C 2,8 C 2,2 C 84 % 1013,2 hPa 0,0 l/m 0 min 0 min 0 W/m 0,0 km/h (0 Bft) 95,74 %
23.11.2018 17:34 5,2 C 2,8 C 2,2 C 84 % 1013,3 hPa 0,0 l/m 0 min 0 min 0 W/m 0,0 km/h (0 Bft) 95,74 %
23.11.2018 17:36 5,1 C 2,8 C 2,2 C 85 % 1013,3 hPa 0,0 l/m 0 min 0 min 0 W/m 0,0 km/h (0 Bft) 91,49 %
23.11.2018 17:38 5,1 C 2,8 C 2,2 C 85 % 1013,2 hPa 0,0 l/m 0 min 0 min 0 W/m 0,0 km/h (0 Bft) 93,62 %
23.11.2018 17:40 5,0 C 2,8 C 2,2 C 85 % 1013,2 hPa 0,0 l/m 0 min 0 min 0 W/m 0,0 km/h (0 Bft) 95,74 %
23.11.2018 17:42 4,9 C 2,8 C 2,2 C 85 % 1013,2 hPa 0,0 l/m 0 min 0 min 0 W/m 0,0 km/h (0 Bft) 95,65 %
23.11.2018 17:44 4,9 C 2,8 C 2,2 C 85 % 1013,2 hPa 0,0 l/m 0 min 0 min 0 W/m 0,0 km/h (0 Bft) 95,74 %
23.11.2018 17:46 4,8 C 2,8 C 2,2 C 85 % 1013,2 hPa 0,0 l/m 0 min 0 min 0 W/m 0,0 km/h (0 Bft) 93,62 %
23.11.2018 17:48 4,8 C 2,8 C 2,2 C 85 % 1013,1 hPa 0,0 l/m 0 min 0 min 0 W/m 3,2 km/h (1 Bft) 93,62 %
23.11.2018 17:50 4,7 C 2,8 C 2,2 C 85 % 1013,1 hPa 0,0 l/m 0 min 0 min 0 W/m 0,0 km/h (0 Bft) 95,74 %
23.11.2018 17:52 4,7 C 2,8 C 2,2 C 85 % 1013,1 hPa 0,0 l/m 0 min 0 min 0 W/m 3,2 km/h (1 Bft) 93,62 %
23.11.2018 17:54 4,7 C 2,8 C 2,2 C 85 % 1013,1 hPa 0,0 l/m 0 min 0 min 0 W/m 3,2 km/h (1 Bft) 93,48 %
23.11.2018 17:56 4,6 C 2,8 C 2,2 C 85 % 1013,0 hPa 0,0 l/m 0 min 0 min 0 W/m 3,2 km/h (1 Bft) 95,74 %
23.11.2018 17:58 4,6 C 3,3 C 2,2 C 86 % 1013,0 hPa 0,0 l/m 0 min 0 min 0 W/m 0,0 km/h (0 Bft) 95,74 %
23.11.2018 18:00 4,6 C 3,3 C 2,2 C 86 % 1013,1 hPa 0,0 l/m 0 min 0 min 0 W/m 0,0 km/h (0 Bft) 95,74 %
23.11.2018 18:02 4,5 C 3,3 C 2,2 C 86 % 1013,1 hPa 0,0 l/m 0 min 0 min 0 W/m 0,0 km/h (0 Bft) 91,49 %
23.11.2018 18:04 4,5 C 3,3 C 2,2 C 86 % 1013,1 hPa 0,0 l/m 0 min 0 min 0 W/m 0,0 km/h (0 Bft) 95,74 %
23.11.2018 18:08 4,4 C 2,8 C 2,2 C 86 % 1013,1 hPa 0,0 l/m 0 min 0 min 0 W/m 0,0 km/h (0 Bft) 95,70 %
23.11.2018 18:10 4,4 C 2,8 C 2,2 C 86 % 1013,1 hPa 0,0 l/m 0 min 0 min 0 W/m 0,0 km/h (0 Bft) 95,74 %
23.11.2018 18:12 4,4 C 2,8 C 2,2 C 86 % 1013,1 hPa 0,0 l/m 0 min 0 min 0 W/m 0,0 km/h (0 Bft) 95,74 %
23.11.2018 18:14 4,3 C 2,8 C 2,2 C 87 % 1013,1 hPa 0,0 l/m 0 min 0 min 0 W/m 0,0 km/h (0 Bft) 95,74 %
23.11.2018 18:16 4,3 C 2,8 C 2,2 C 87 % 1013,1 hPa 0,0 l/m 0 min 0 min 0 W/m 0,0 km/h (0 Bft) 95,74 %
23.11.2018 18:18 4,3 C 2,8 C 2,2 C 87 % 1013,1 hPa 0,0 l/m 0 min 0 min 0 W/m 0,0 km/h (0 Bft) 93,48 %
23.11.2018 18:20 4,2 C 2,8 C 2,2 C 87 % 1013,1 hPa 0,0 l/m 0 min 0 min 0 W/m 0,0 km/h (0 Bft) 93,62 %
23.11.2018 18:22 4,2 C 2,8 C 1,7 C 87 % 1013,0 hPa 0,0 l/m 0 min 0 min 0 W/m 0,0 km/h (0 Bft) 95,74 %
23.11.2018 18:24 4,2 C 2,8 C 1,7 C 87 % 1013,1 hPa 0,0 l/m 0 min 0 min 0 W/m 0,0 km/h (0 Bft) 93,62 %
23.11.2018 18:26 4,2 C 2,8 C 1,7 C 87 % 1013,1 hPa 0,0 l/m 0 min 0 min 0 W/m 0,0 km/h (0 Bft) 95,65 %
23.11.2018 18:28 4,2 C 2,8 C 1,7 C 87 % 1013,1 hPa 0,0 l/m 0 min 0 min 0 W/m 0,0 km/h (0 Bft) 95,65 %
23.11.2018 18:30 4,1 C 2,8 C 1,7 C 87 % 1013,1 hPa 0,0 l/m 0 min 0 min 0 W/m 0,0 km/h (0 Bft) 95,74 %
23.11.2018 18:32 4,1 C 2,8 C 1,7 C 87 % 1013,1 hPa 0,0 l/m 0 min 0 min 0 W/m 0,0 km/h (0 Bft) 95,74 %
23.11.2018 18:34 4,1 C 2,2 C 1,7 C 87 % 1013,1 hPa 0,0 l/m 0 min 0 min 0 W/m 0,0 km/h (0 Bft) 95,74 %
23.11.2018 18:36 4,0 C 2,2 C 1,7 C 87 % 1013,1 hPa 0,0 l/m 0 min 0 min 0 W/m 0,0 km/h (0 Bft) 95,74 %
23.11.2018 18:38 4,0 C 2,2 C 1,7 C 87 % 1013,1 hPa 0,0 l/m 0 min 0 min 0 W/m 0,0 km/h (0 Bft) 91,49 %
23.11.2018 18:40 3,9 C 2,2 C 1,7 C 87 % 1013,0 hPa 0,0 l/m 0 min 0 min 0 W/m 0,0 km/h (0 Bft) 95,65 %
23.11.2018 18:42 3,9 C 2,2 C 1,7 C 87 % 1013,0 hPa 0,0 l/m 0 min 0 min 0 W/m 0,0 km/h (0 Bft) 95,74 %
23.11.2018 18:44 3,9 C 2,2 C 1,7 C 87 % 1013,0 hPa 0,0 l/m 0 min 0 min 0 W/m 0,0 km/h (0 Bft) 97,87 %
23.11.2018 18:46 3,8 C 2,2 C 1,7 C 87 % 1013,0 hPa 0,0 l/m 0 min 0 min 0 W/m 0,0 km/h (0 Bft) 97,87 %
23.11.2018 18:48 3,8 C 2,2 C 1,7 C 87 % 1013,0 hPa 0,0 l/m 0 min 0 min 0 W/m 0,0 km/h (0 Bft) 97,87 %
23.11.2018 18:50 3,8 C 2,2 C 1,7 C 87 % 1012,9 hPa 0,0 l/m 0 min 0 min 0 W/m 0,0 km/h (0 Bft) 95,74 %
23.11.2018 18:52 3,7 C 2,2 C 1,7 C 87 % 1012,9 hPa 0,0 l/m 0 min 0 min 0 W/m 0,0 km/h (0 Bft) 95,65 %
23.11.2018 18:54 3,7 C 2,2 C 1,7 C 87 % 1012,9 hPa 0,0 l/m 0 min 0 min 0 W/m 0,0 km/h (0 Bft) 95,74 %
23.11.2018 18:56 3,7 C 2,2 C 1,7 C 87 % 1012,8 hPa 0,0 l/m 0 min 0 min 0 W/m 0,0 km/h (0 Bft) 93,62 %
23.11.2018 18:58 3,6 C 2,2 C 1,7 C 87 % 1012,8 hPa 0,0 l/m 0 min 0 min 0 W/m 0,0 km/h (0 Bft) 97,87 %
23.11.2018 19:00 3,6 C 2,2 C 1,7 C 87 % 1012,9 hPa 0,0 l/m 0 min 0 min 0 W/m 0,0 km/h (0 Bft) 95,74 %
23.11.2018 19:02 3,6 C 1,7 C 1,1 C 87 % 1012,8 hPa 0,0 l/m 0 min 0 min 0 W/m 0,0 km/h (0 Bft) 95,74 %
23.11.2018 19:04 3,5 C 1,7 C 1,1 C 87 % 1012,8 hPa 0,0 l/m 0 min 0 min 0 W/m 0,0 km/h (0 Bft) 97,83 %
23.11.2018 19:06 3,5 C 1,7 C 1,1 C 87 % 1012,8 hPa 0,0 l/m 0 min 0 min 0 W/m 0,0 km/h (0 Bft) 100,00 %
23.11.2018 19:08 3,4 C 1,7 C 1,1 C 88 % 1012,7 hPa 0,0 l/m 0 min 0 min 0 W/m 0,0 km/h (0 Bft) 97,87 %
23.11.2018 19:10 3,4 C 1,7 C 1,1 C 87 % 1012,7 hPa 0,0 l/m 0 min 0 min 0 W/m 0,0 km/h (0 Bft) 95,74 %
23.11.2018 19:12 3,4 C 1,7 C 1,1 C 87 % 1012,7 hPa 0,0 l/m 0 min 0 min 0 W/m 0,0 km/h (0 Bft) 97,87 %
23.11.2018 19:14 3,3 C 1,7 C 1,1 C 87 % 1012,7 hPa 0,0 l/m 0 min 0 min 0 W/m 0,0 km/h (0 Bft) 91,49 %
23.11.2018 19:16 3,3 C 1,7 C 1,1 C 88 % 1012,7 hPa 0,0 l/m 0 min 0 min 0 W/m 0,0 km/h (0 Bft) 93,48 %
23.11.2018 19:18 3,3 C 1,7 C 1,1 C 88 % 1012,6 hPa 0,0 l/m 0 min 0 min 0 W/m 0,0 km/h (0 Bft) 93,62 %
23.11.2018 19:20 3,2 C 1,7 C 1,1 C 88 % 1012,7 hPa 0,0 l/m 0 min 0 min 0 W/m 0,0 km/h (0 Bft) 97,87 %
23.11.2018 19:22 3,2 C 1,7 C 1,1 C 88 % 1012,6 hPa 0,0 l/m 0 min 0 min 0 W/m 0,0 km/h (0 Bft) 95,74 %
23.11.2018 19:24 3,2 C 1,7 C 1,1 C 88 % 1012,6 hPa 0,0 l/m 0 min 0 min 0 W/m 0,0 km/h (0 Bft) 97,87 %
23.11.2018 19:26 3,1 C 1,7 C 1,1 C 88 % 1012,7 hPa 0,0 l/m 0 min 0 min 0 W/m 0,0 km/h (0 Bft) 97,87 %
23.11.2018 19:28 3,1 C 1,7 C 1,1 C 88 % 1012,6 hPa 0,0 l/m 0 min 0 min 0 W/m 0,0 km/h (0 Bft) 97,83 %
23.11.2018 19:30 3,1 C 1,7 C 1,1 C 88 % 1012,6 hPa 0,0 l/m 0 min 0 min 0 W/m 0,0 km/h (0 Bft) 97,87 %
23.11.2018 19:32 3,0 C 1,7 C 1,1 C 88 % 1012,5 hPa 0,0 l/m 0 min 0 min 0 W/m 0,0 km/h (0 Bft) 97,87 %
23.11.2018 19:34 3,0 C 1,7 C 1,1 C 88 % 1012,5 hPa 0,0 l/m 0 min 0 min 0 W/m 0,0 km/h (0 Bft) 97,87 %
23.11.2018 19:36 2,9 C 1,7 C 1,1 C 88 % 1012,4 hPa 0,0 l/m 0 min 0 min 0 W/m 0,0 km/h (0 Bft) 97,87 %
23.11.2018 19:38 2,9 C 1,7 C 1,1 C 88 % 1012,4 hPa 0,0 l/m 0 min 0 min 0 W/m 0,0 km/h (0 Bft) 100,00 %
23.11.2018 19:40 2,9 C 1,7 C 1,1 C 88 % 1012,4 hPa 0,0 l/m 0 min 0 min 0 W/m 0,0 km/h (0 Bft) 100,00 %
23.11.2018 19:42 2,9 C 1,7 C 1,1 C 88 % 1012,4 hPa 0,0 l/m 0 min 0 min 0 W/m 0,0 km/h (0 Bft) 100,00 %
23.11.2018 19:44 2,9 C 1,7 C 1,1 C 88 % 1012,3 hPa 0,0 l/m 0 min 0 min 0 W/m 0,0 km/h (0 Bft) 100,00 %
23.11.2018 19:46 2,8 C 1,7 C 1,1 C 88 % 1012,2 hPa 0,0 l/m 0 min 0 min 0 W/m 0,0 km/h (0 Bft) 100,00 %
23.11.2018 19:48 2,8 C 1,7 C 1,1 C 88 % 1012,3 hPa 0,0 l/m 0 min 0 min 0 W/m 0,0 km/h (0 Bft) 100,00 %
23.11.2018 19:50 2,8 C 1,7 C 1,1 C 89 % 1012,3 hPa 0,0 l/m 0 min 0 min 0 W/m 0,0 km/h (0 Bft) 100,00 %
23.11.2018 19:52 2,8 C 1,7 C 1,1 C 89 % 1012,3 hPa 0,0 l/m 0 min 0 min 0 W/m 0,0 km/h (0 Bft) 97,87 %
23.11.2018 19:54 2,8 C 1,7 C 1,1 C 89 % 1012,3 hPa 0,0 l/m 0 min 0 min 0 W/m 0,0 km/h (0 Bft) 97,87 %
23.11.2018 19:56 2,7 C 1,7 C 1,1 C 89 % 1012,3 hPa 0,0 l/m 0 min 0 min 0 W/m 0,0 km/h (0 Bft) 100,00 %
23.11.2018 19:58 2,7 C 1,7 C 1,1 C 89 % 1012,3 hPa 0,0 l/m 0 min 0 min 0 W/m 0,0 km/h (0 Bft) 100,00 %
23.11.2018 20:00 2,7 C 1,7 C 1,1 C 89 % 1012,2 hPa 0,0 l/m 0 min 0 min 0 W/m 0,0 km/h (0 Bft) 100,00 %
23.11.2018 20:02 2,7 C 1,7 C 1,1 C 89 % 1012,1 hPa 0,0 l/m 0 min 0 min 0 W/m 0,0 km/h (0 Bft) 97,83 %
23.11.2018 20:04 2,7 C 1,7 C 1,1 C 89 % 1012,1 hPa 0,0 l/m 0 min 0 min 0 W/m 0,0 km/h (0 Bft) 100,00 %
23.11.2018 20:06 2,7 C 1,7 C 1,1 C 89 % 1012,0 hPa 0,0 l/m 0 min 0 min 0 W/m 0,0 km/h (0 Bft) 100,00 %
23.11.2018 20:08 2,7 C 1,7 C 1,1 C 89 % 1012,0 hPa 0,0 l/m 0 min 0 min 0 W/m 0,0 km/h (0 Bft) 100,00 %
23.11.2018 20:10 2,7 C 1,1 C 1,1 C 90 % 1012,0 hPa 0,0 l/m 0 min 0 min 0 W/m 0,0 km/h (0 Bft) 100,00 %
23.11.2018 20:12 2,6 C 1,1 C 1,1 C 90 % 1012,0 hPa 0,0 l/m 0 min 0 min 0 W/m 0,0 km/h (0 Bft) 100,00 %
23.11.2018 20:14 2,6 C 1,1 C 1,1 C 90 % 1012,0 hPa 0,0 l/m 0 min 0 min 0 W/m 0,0 km/h (0 Bft) 100,00 %
23.11.2018 20:16 2,6 C 1,1 C 1,1 C 90 % 1012,0 hPa 0,0 l/m 0 min 0 min 0 W/m 0,0 km/h (0 Bft) 100,00 %
23.11.2018 20:18 2,6 C 1,1 C 0,6 C 90 % 1011,9 hPa 0,0 l/m 0 min 0 min 0 W/m 0,0 km/h (0 Bft) 97,87 %
23.11.2018 20:20 2,6 C 1,1 C 0,6 C 90 % 1012,0 hPa 0,0 l/m 0 min 0 min 0 W/m 0,0 km/h (0 Bft) 100,00 %
23.11.2018 20:22 2,6 C 1,1 C 0,6 C 90 % 1011,9 hPa 0,0 l/m 0 min 0 min 0 W/m 0,0 km/h (0 Bft) 97,87 %
23.11.2018 20:24 2,5 C 1,7 C 1,1 C 90 % 1012,0 hPa 0,0 l/m 0 min 0 min 0 W/m 0,0 km/h (0 Bft) 100,00 %
23.11.2018 20:26 2,5 C 1,7 C 0,6 C 90 % 1011,9 hPa 0,0 l/m 0 min 0 min 0 W/m 0,0 km/h (0 Bft) 100,00 %
23.11.2018 20:28 2,5 C 1,7 C 0,6 C 90 % 1011,9 hPa 0,0 l/m 0 min 0 min 0 W/m 0,0 km/h (0 Bft) 100,00 %
23.11.2018 20:30 2,5 C 1,7 C 0,6 C 90 % 1011,9 hPa 0,0 l/m 0 min 0 min 0 W/m 0,0 km/h (0 Bft) 100,00 %
23.11.2018 20:32 2,4 C 1,1 C 0,6 C 90 % 1011,9 hPa 0,0 l/m 0 min 0 min 0 W/m 0,0 km/h (0 Bft) 100,00 %
23.11.2018 20:34 2,4 C 1,1 C 0,6 C 90 % 1011,9 hPa 0,0 l/m 0 min 0 min 0 W/m 0,0 km/h (0 Bft) 100,00 %
23.11.2018 20:36 2,4 C 1,1 C 0,6 C 90 % 1011,9 hPa 0,0 l/m 0 min 0 min 0 W/m 0,0 km/h (0 Bft) 100,00 %
23.11.2018 20:38 2,4 C 1,1 C 0,6 C 90 % 1011,9 hPa 0,0 l/m 0 min 0 min 0 W/m 0,0 km/h (0 Bft) 97,83 %
23.11.2018 20:40 2,4 C 1,1 C 0,6 C 90 % 1011,9 hPa 0,0 l/m 0 min 0 min 0 W/m 0,0 km/h (0 Bft) 100,00 %
23.11.2018 20:42 2,3 C 1,1 C 0,6 C 90 % 1012,0 hPa 0,0 l/m 0 min 0 min 0 W/m 0,0 km/h (0 Bft) 97,87 %
23.11.2018 20:44 2,3 C 1,1 C 0,6 C 90 % 1011,9 hPa 0,0 l/m 0 min 0 min 0 W/m 0,0 km/h (0 Bft) 97,87 %
23.11.2018 20:46 2,3 C 1,1 C 0,6 C 90 % 1011,9 hPa 0,0 l/m 0 min 0 min 0 W/m 0,0 km/h (0 Bft) 100,00 %
23.11.2018 20:48 2,3 C 1,1 C 0,6 C 90 % 1011,9 hPa 0,0 l/m 0 min 0 min 0 W/m 0,0 km/h (0 Bft) 100,00 %
23.11.2018 20:50 2,3 C 1,1 C 0,6 C 90 % 1011,9 hPa 0,0 l/m 0 min 0 min 0 W/m 0,0 km/h (0 Bft) 95,74 %
23.11.2018 20:52 2,3 C 1,1 C 0,6 C 91 % 1011,9 hPa 0,0 l/m 0 min 0 min 0 W/m 0,0 km/h (0 Bft) 100,00 %
23.11.2018 20:54 2,2 C 1,1 C 0,6 C 91 % 1011,9 hPa 0,0 l/m 0 min 0 min 0 W/m 0,0 km/h (0 Bft) 97,87 %
23.11.2018 20:56 2,2 C 1,1 C 0,6 C 91 % 1011,9 hPa 0,0 l/m 0 min 0 min 0 W/m 0,0 km/h (0 Bft) 97,87 %
23.11.2018 20:58 2,2 C 0,6 C 0,6 C 91 % 1011,8 hPa 0,0 l/m 0 min 0 min 0 W/m 0,0 km/h (0 Bft) 97,87 %
23.11.2018 21:00 2,2 C 1,1 C 0,6 C 91 % 1011,8 hPa 0,0 l/m 0 min 0 min 0 W/m 0,0 km/h (0 Bft) 97,83 %
23.11.2018 21:02 2,2 C 1,1 C 0,6 C 91 % 1011,9 hPa 0,0 l/m 0 min 0 min 0 W/m 0,0 km/h (0 Bft) 97,87 %
23.11.2018 21:04 2,2 C 1,1 C 0,6 C 91 % 1011,8 hPa 0,0 l/m 0 min 0 min 0 W/m 0,0 km/h (0 Bft) 97,87 %
23.11.2018 21:06 2,1 C 1,7 C 0,6 C 91 % 1011,9 hPa 0,0 l/m 0 min 0 min 0 W/m 0,0 km/h (0 Bft) 97,87 %
23.11.2018 21:08 2,1 C 1,7 C 0,6 C 91 % 1011,9 hPa 0,0 l/m 0 min 0 min 0 W/m 0,0 km/h (0 Bft) 97,87 %
23.11.2018 21:10 2,1 C 1,1 C 0,6 C 91 % 1011,8 hPa 0,0 l/m 0 min 0 min 0 W/m 0,0 km/h (0 Bft) 97,87 %
23.11.2018 21:12 2,1 C 1,1 C 0,6 C 91 % 1011,8 hPa 0,0 l/m 0 min 0 min 0 W/m 0,0 km/h (0 Bft) 97,83 %
23.11.2018 21:14 2,1 C 1,1 C 0,6 C 91 % 1011,9 hPa 0,0 l/m 0 min 0 min 0 W/m 0,0 km/h (0 Bft) 95,74 %
23.11.2018 21:16 2,1 C 1,1 C 0,6 C 91 % 1011,8 hPa 0,0 l/m 0 min 0 min 0 W/m 0,0 km/h (0 Bft) 95,74 %
23.11.2018 21:18 2,1 C 0,6 C 0,6 C 91 % 1011,7 hPa 0,0 l/m 0 min 0 min 0 W/m 0,0 km/h (0 Bft) 95,74 %
23.11.2018 21:20 2,1 C 0,6 C 0,6 C 91 % 1011,8 hPa 0,0 l/m 0 min 0 min 0 W/m 0,0 km/h (0 Bft) 91,49 %
23.11.2018 21:22 2,1 C 0,6 C 0,6 C 91 % 1011,7 hPa 0,0 l/m 0 min 0 min 0 W/m 0,0 km/h (0 Bft) 93,62 %
23.11.2018 21:24 2,0 C 0,6 C 0,6 C 91 % 1011,7 hPa 0,0 l/m 0 min 0 min 0 W/m 0,0 km/h (0 Bft) 97,83 %
23.11.2018 21:26 2,0 C 0,6 C 0,6 C 91 % 1011,7 hPa 0,0 l/m 0 min 0 min 0 W/m 0,0 km/h (0 Bft) 95,74 %
23.11.2018 21:28 2,0 C 0,6 C 0,0 C 91 % 1011,8 hPa 0,0 l/m 0 min 0 min 0 W/m 0,0 km/h (0 Bft) 97,87 %
23.11.2018 21:30 1,9 C 0,6 C 0,0 C 91 % 1011,6 hPa 0,0 l/m 0 min 0 min 0 W/m 0,0 km/h (0 Bft) 97,87 %
23.11.2018 21:32 1,9 C 0,6 C 0,0 C 91 % 1011,8 hPa 0,0 l/m 0 min 0 min 0 W/m 0,0 km/h (0 Bft) 95,74 %
23.11.2018 21:34 1,9 C 0,6 C 0,0 C 91 % 1011,7 hPa 0,0 l/m 0 min 0 min 0 W/m 0,0 km/h (0 Bft) 97,87 %
23.11.2018 21:36 1,9 C 0,6 C 0,0 C 91 % 1011,7 hPa 0,0 l/m 0 min 0 min 0 W/m 0,0 km/h (0 Bft) 97,83 %
23.11.2018 21:38 1,9 C 0,6 C 0,0 C 91 % 1011,6 hPa 0,0 l/m 0 min 0 min 0 W/m 0,0 km/h (0 Bft) 93,62 %
23.11.2018 21:40 1,8 C 0,6 C 0,0 C 91 % 1011,7 hPa 0,0 l/m 0 min 0 min 0 W/m 0,0 km/h (0 Bft) 97,87 %
23.11.2018 21:42 1,8 C 1,1 C 0,0 C 91 % 1011,7 hPa 0,0 l/m 0 min 0 min 0 W/m 0,0 km/h (0 Bft) 97,87 %
23.11.2018 21:44 1,8 C 1,1 C 0,0 C 91 % 1011,6 hPa 0,0 l/m 0 min 0 min 0 W/m 0,0 km/h (0 Bft) 97,87 %
23.11.2018 21:46 1,8 C 0,6 C 0,0 C 91 % 1011,5 hPa 0,0 l/m 0 min 0 min 0 W/m 0,0 km/h (0 Bft) 95,65 %
23.11.2018 21:48 1,8 C 0,6 C 0,0 C 91 % 1011,5 hPa 0,0 l/m 0 min 0 min 0 W/m 0,0 km/h (0 Bft) 95,74 %
23.11.2018 21:50 1,7 C 1,1 C 0,0 C 91 % 1011,6 hPa 0,0 l/m 0 min 0 min 0 W/m 0,0 km/h (0 Bft) 97,87 %
23.11.2018 21:52 1,7 C 1,1 C 0,0 C 92 % 1011,6 hPa 0,0 l/m 0 min 0 min 0 W/m 0,0 km/h (0 Bft) 95,74 %
23.11.2018 21:54 1,7 C 1,1 C 0,0 C 92 % 1011,4 hPa 0,0 l/m 0 min 0 min 0 W/m 0,0 km/h (0 Bft) 91,49 %
23.11.2018 21:56 1,7 C 0,6 C 0,0 C 92 % 1011,4 hPa 0,0 l/m 0 min 0 min 0 W/m 0,0 km/h (0 Bft) 95,74 %
23.11.2018 21:58 1,7 C 0,6 C 0,0 C 92 % 1011,4 hPa 0,0 l/m 0 min 0 min 0 W/m 0,0 km/h (0 Bft) 95,65 %
23.11.2018 22:00 1,7 C 0,6 C 0,0 C 92 % 1011,2 hPa 0,0 l/m 0 min 0 min 0 W/m 0,0 km/h (0 Bft) 95,74 %
23.11.2018 22:02 1,7 C 0,6 C 0,0 C 92 % 1011,3 hPa 0,0 l/m 0 min 0 min 0 W/m 0,0 km/h (0 Bft) 95,74 %
23.11.2018 22:04 1,6 C 0,6 C 0,0 C 92 % 1011,2 hPa 0,0 l/m 0 min 0 min 0 W/m 0,0 km/h (0 Bft) 93,62 %
23.11.2018 22:06 1,6 C 0,0 C 0,0 C 92 % 1011,3 hPa 0,0 l/m 0 min 0 min 0 W/m 0,0 km/h (0 Bft) 97,87 %
23.11.2018 22:08 1,6 C 0,0 C 0,0 C 92 % 1011,3 hPa 0,0 l/m 0 min 0 min 0 W/m 0,0 km/h (0 Bft) 95,83 %
23.11.2018 22:10 1,6 C 0,0 C 0,0 C 92 % 1011,3 hPa 0,0 l/m 0 min 0 min 0 W/m 0,0 km/h (0 Bft) 97,83 %
23.11.2018 22:12 1,6 C 0,0 C 0,0 C 92 % 1011,2 hPa 0,0 l/m 0 min 0 min 0 W/m 0,0 km/h (0 Bft) 95,74 %
23.11.2018 22:14 1,5 C 0,0 C 0,0 C 92 % 1011,2 hPa 0,0 l/m 0 min 0 min 0 W/m 0,0 km/h (0 Bft) 97,87 %
23.11.2018 22:16 1,5 C 0,0 C 0,0 C 92 % 1011,3 hPa 0,0 l/m 0 min 0 min 0 W/m 0,0 km/h (0 Bft) 97,87 %
23.11.2018 22:18 1,4 C 0,0 C 0,0 C 92 % 1011,2 hPa 0,0 l/m 0 min 0 min 0 W/m 0,0 km/h (0 Bft) 95,74 %
23.11.2018 22:20 1,4 C 0,0 C 0,0 C 92 % 1011,1 hPa 0,0 l/m 0 min 0 min 0 W/m 0,0 km/h (0 Bft) 97,87 %
23.11.2018 22:22 1,4 C 0,0 C 0,0 C 92 % 1011,1 hPa 0,0 l/m 0 min 0 min 0 W/m 0,0 km/h (0 Bft) 97,83 %
23.11.2018 22:24 1,4 C 0,0 C 0,0 C 92 % 1011,1 hPa 0,0 l/m 0 min 0 min 0 W/m 0,0 km/h (0 Bft) 97,87 %
23.11.2018 22:26 1,4 C 0,0 C 0,0 C 92 % 1011,1 hPa 0,0 l/m 0 min 0 min 0 W/m 0,0 km/h (0 Bft) 95,74 %
23.11.2018 22:28 1,3 C 0,0 C 0,0 C 92 % 1011,0 hPa 0,0 l/m 0 min 0 min 0 W/m 0,0 km/h (0 Bft) 97,87 %
23.11.2018 22:30 1,3 C 0,0 C 0,0 C 92 % 1010,9 hPa 0,0 l/m 0 min 0 min 0 W/m 0,0 km/h (0 Bft) 95,74 %
23.11.2018 22:32 1,3 C 0,0 C 0,0 C 92 % 1011,0 hPa 0,0 l/m 0 min 0 min 0 W/m 0,0 km/h (0 Bft) 95,74 %
23.11.2018 22:34 1,3 C 0,6 C 0,0 C 92 % 1011,0 hPa 0,0 l/m 0 min 0 min 0 W/m 0,0 km/h (0 Bft) 97,83 %
23.11.2018 22:36 1,2 C 0,6 C 0,0 C 92 % 1010,9 hPa 0,0 l/m 0 min 0 min 0 W/m 0,0 km/h (0 Bft) 97,87 %
23.11.2018 22:38 1,2 C 0,0 C 0,0 C 92 % 1010,9 hPa 0,0 l/m 0 min 0 min 0 W/m 0,0 km/h (0 Bft) 95,74 %
23.11.2018 22:40 1,2 C 0,0 C 0,0 C 92 % 1010,9 hPa 0,0 l/m 0 min 0 min 0 W/m 0,0 km/h (0 Bft) 95,74 %
23.11.2018 22:42 1,2 C 0,0 C 0,0 C 92 % 1010,9 hPa 0,0 l/m 0 min 0 min 0 W/m 0,0 km/h (0 Bft) 91,49 %
23.11.2018 22:44 1,2 C 0,0 C 0,0 C 92 % 1010,9 hPa 0,0 l/m 0 min 0 min 0 W/m 0,0 km/h (0 Bft) 95,65 %
23.11.2018 22:46 1,2 C 0,0 C 0,0 C 92 % 1010,9 hPa 0,0 l/m 0 min 0 min 0 W/m 0,0 km/h (0 Bft) 95,74 %
23.11.2018 22:48 1,2 C 0,0 C 0,0 C 92 % 1010,9 hPa 0,0 l/m 0 min 0 min 0 W/m 0,0 km/h (0 Bft) 95,74 %
23.11.2018 22:50 1,1 C 0,0 C 0,0 C 92 % 1010,9 hPa 0,0 l/m 0 min 0 min 0 W/m 0,0 km/h (0 Bft) 95,74 %
23.11.2018 22:52 1,1 C 0,0 C 0,0 C 92 % 1010,9 hPa 0,0 l/m 0 min 0 min 0 W/m 0,0 km/h (0 Bft) 95,74 %
23.11.2018 22:54 1,1 C 0,0 C 0,0 C 92 % 1010,9 hPa 0,0 l/m 0 min 0 min 0 W/m 0,0 km/h (0 Bft) 95,74 %
23.11.2018 22:56 1,1 C 0,0 C 0,0 C 92 % 1010,9 hPa 0,0 l/m 0 min 0 min 0 W/m 0,0 km/h (0 Bft) 95,65 %
23.11.2018 22:58 1,1 C 0,0 C 0,0 C 92 % 1010,9 hPa 0,0 l/m 0 min 0 min 0 W/m 0,0 km/h (0 Bft) 93,62 %
23.11.2018 23:00 1,1 C 0,6 C 0,0 C 92 % 1010,9 hPa 0,0 l/m 0 min 0 min 0 W/m 0,0 km/h (0 Bft) 95,74 %
23.11.2018 23:02 1,1 C 0,6 C 0,0 C 92 % 1011,0 hPa 0,0 l/m 0 min 0 min 0 W/m 0,0 km/h (0 Bft) 93,62 %
23.11.2018 23:04 1,1 C 0,6 C 0,0 C 92 % 1011,0 hPa 0,0 l/m 0 min 0 min 0 W/m 0,0 km/h (0 Bft) 93,62 %
23.11.2018 23:06 1,1 C 0,6 C 0,0 C 92 % 1010,9 hPa 0,0 l/m 0 min 0 min 0 W/m 0,0 km/h (0 Bft) 91,49 %
23.11.2018 23:08 1,1 C 0,6 C 0,0 C 92 % 1011,1 hPa 0,0 l/m 0 min 0 min 0 W/m 0,0 km/h (0 Bft) 97,83 %
23.11.2018 23:10 1,1 C 0,0 C 0,0 C 92 % 1011,0 hPa 0,0 l/m 0 min 0 min 0 W/m 0,0 km/h (0 Bft) 93,62 %
23.11.2018 23:12 1,1 C 0,0 C 0,0 C 92 % 1010,9 hPa 0,0 l/m 0 min 0 min 0 W/m 0,0 km/h (0 Bft) 95,74 %
23.11.2018 23:14 1,1 C 0,0 C 0,0 C 92 % 1010,9 hPa 0,0 l/m 0 min 0 min 0 W/m 0,0 km/h (0 Bft) 100,00 %
23.11.2018 23:16 1,1 C 0,0 C 0,0 C 92 % 1011,0 hPa 0,0 l/m 0 min 0 min 0 W/m 0,0 km/h (0 Bft) 97,87 %
23.11.2018 23:18 1,1 C 0,0 C 0,0 C 93 % 1010,9 hPa 0,0 l/m 0 min 0 min 0 W/m 0,0 km/h (0 Bft) 100,00 %
23.11.2018 23:20 1,1 C 0,0 C 0,0 C 93 % 1010,9 hPa 0,0 l/m 0 min 0 min 0 W/m 0,0 km/h (0 Bft) 97,83 %
23.11.2018 23:22 1,1 C 0,0 C -0,6 C 93 % 1010,9 hPa 0,0 l/m 0 min 0 min 0 W/m 0,0 km/h (0 Bft) 95,74 %
23.11.2018 23:24 1,1 C 0,0 C -0,6 C 93 % 1010,8 hPa 0,0 l/m 0 min 0 min 0 W/m 0,0 km/h (0 Bft) 100,00 %
23.11.2018 23:26 1,1 C -0,6 C -0,6 C 93 % 1010,9 hPa 0,0 l/m 0 min 0 min 0 W/m 0,0 km/h (0 Bft) 97,87 %
23.11.2018 23:28 1,0 C -0,6 C -0,6 C 93 % 1010,8 hPa 0,0 l/m 0 min 0 min 0 W/m 0,0 km/h (0 Bft) 100,00 %
23.11.2018 23:30 1,0 C -0,6 C -0,6 C 93 % 1010,9 hPa 0,0 l/m 0 min 0 min 0 W/m 0,0 km/h (0 Bft) 95,74 %
23.11.2018 23:32 1,0 C -0,6 C -0,6 C 93 % 1010,8 hPa 0,0 l/m 0 min 0 min 0 W/m 0,0 km/h (0 Bft) 97,83 %
23.11.2018 23:34 0,9 C -0,6 C -0,6 C 93 % 1010,9 hPa 0,0 l/m 0 min 0 min 0 W/m 0,0 km/h (0 Bft) 100,00 %
23.11.2018 23:36 0,9 C -0,6 C -0,6 C 93 % 1010,8 hPa 0,0 l/m 0 min 0 min 0 W/m 0,0 km/h (0 Bft) 97,87 %
23.11.2018 23:38 0,9 C 0,0 C -0,6 C 93 % 1010,8 hPa 0,0 l/m 0 min 0 min 0 W/m 0,0 km/h (0 Bft) 100,00 %
23.11.2018 23:40 0,9 C 0,0 C -0,6 C 93 % 1010,8 hPa 0,0 l/m 0 min 0 min 0 W/m 0,0 km/h (0 Bft) 100,00 %
23.11.2018 23:42 0,9 C 0,0 C -0,6 C 93 % 1010,8 hPa 0,0 l/m 0 min 0 min 0 W/m 0,0 km/h (0 Bft) 100,00 %
23.11.2018 23:44 0,9 C 0,0 C -0,6 C 93 % 1010,7 hPa 0,0 l/m 0 min 0 min 0 W/m 0,0 km/h (0 Bft) 100,00 %
23.11.2018 23:46 0,8 C -0,6 C -0,6 C 93 % 1010,6 hPa 0,0 l/m 0 min 0 min 0 W/m 0,0 km/h (0 Bft) 100,00 %
23.11.2018 23:48 0,8 C -0,6 C -0,6 C 93 % 1010,6 hPa 0,0 l/m 0 min 0 min 0 W/m 0,0 km/h (0 Bft) 97,87 %
23.11.2018 23:50 0,8 C -0,6 C -0,6 C 93 % 1010,7 hPa 0,0 l/m 0 min 0 min 0 W/m 0,0 km/h (0 Bft) 100,00 %
23.11.2018 23:52 0,8 C -0,6 C -0,6 C 93 % 1010,7 hPa 0,0 l/m 0 min 0 min 0 W/m 0,0 km/h (0 Bft) 100,00 %
23.11.2018 23:54 0,8 C -0,6 C -0,6 C 93 % 1010,6 hPa 0,0 l/m 0 min 0 min 0 W/m 0,0 km/h (0 Bft) 100,00 %
23.11.2018 23:56 0,7 C -0,6 C -0,6 C 93 % 1010,7 hPa 0,0 l/m 0 min 0 min 0 W/m 0,0 km/h (0 Bft) 97,87 %
23.11.2018 23:58 0,7 C -0,6 C -0,6 C 93 % 1010,6 hPa 0,0 l/m 0 min 0 min 0 W/m 0,0 km/h (0 Bft) 100,00 %
_ Min-Zeit 04:52 23:26 04:05 13:44 23:46 - - - - 04:42 01:54
Minimum _ 0,5 C -0,6 C -0,6 C 74 % 1010,6 hPa - - - - 0,0 km/h (0 Bft) 89,36 %
_ Max-Zeit 14:24 14:18 13:18 06:40 01:48 00:00 12:08 00:00 12:24 10:08 00:00
Maximum _ 9,7 C 14,4 C 7,2 C 94 % 1017,6 hPa 0,0 l/m 4 min 0 min 350 W/m 25,7 km/h
O-SO (4 Bft)
100,00 %
Durchschnitt _ 3,4 C 3,3 C 1,9 C 88 % 1015,0 hPa #0,0 l/m #4:08 h #0 min. 139 W/m 7,1 km/h (2 Bft) 97,36 %
© 2018 W. Hausmann